2016 Cux-Wetter.de -Die Nutzung der Wetterdaten nur mit ausdrcklicher Genehmigung
Wetterdaten: Mittwoch, 01.06.2016
Datum Zeit Temp. A. Feuchte A. Luftdruck Regen Wind Richtung Richtung Sonnenschein Solar Taupunkt Windchill Windben
01.06.2016 00:00 17,8 C 90 % 1012,7 hPa 0,0 l/m 6,9 km/h (2 Bft) NO 47 0 min 0 W/m 16,1 C 17,6 C 16,1 km/h (3 Bft)
01.06.2016 00:03 17,7 C 90 % 1012,7 hPa 0,0 l/m 4,4 km/h (1 Bft) SO 125 0 min 0 W/m 16,0 C 17,7 C 12,9 km/h (3 Bft)
01.06.2016 00:06 17,7 C 91 % 1012,6 hPa 0,0 l/m 3,4 km/h (1 Bft) O-NO 65 0 min 0 W/m 16,2 C 17,7 C 8,0 km/h (2 Bft)
01.06.2016 00:09 17,7 C 91 % 1012,5 hPa 0,0 l/m 3,3 km/h (1 Bft) N-NO 15 0 min 0 W/m 16,2 C 17,7 C 6,4 km/h (2 Bft)
01.06.2016 00:12 17,6 C 91 % 1012,5 hPa 0,0 l/m 3,1 km/h (1 Bft) O-SO 105 0 min 0 W/m 16,1 C 17,6 C 9,7 km/h (2 Bft)
01.06.2016 00:15 17,6 C 91 % 1012,5 hPa 0,0 l/m 2,3 km/h (1 Bft) NO 40 0 min 0 W/m 16,1 C 17,6 C 9,7 km/h (2 Bft)
01.06.2016 00:18 17,6 C 91 % 1012,5 hPa 0,0 l/m 3,2 km/h (1 Bft) S 175 0 min 0 W/m 16,1 C 17,6 C 11,3 km/h (2 Bft)
01.06.2016 00:21 17,6 C 91 % 1012,5 hPa 0,0 l/m 3,8 km/h (1 Bft) NO 40 0 min 0 W/m 16,1 C 17,6 C 12,9 km/h (3 Bft)
01.06.2016 00:24 17,6 C 91 % 1012,6 hPa 0,0 l/m 4,2 km/h (1 Bft) O 92 0 min 0 W/m 16,1 C 17,6 C 8,0 km/h (2 Bft)
01.06.2016 00:27 17,6 C 91 % 1012,6 hPa 0,0 l/m 5,5 km/h (2 Bft) N-NO 12 0 min 0 W/m 16,1 C 17,6 C 16,1 km/h (3 Bft)
01.06.2016 00:30 17,6 C 91 % 1012,6 hPa 0,0 l/m 3,6 km/h (1 Bft) N-NO 13 0 min 0 W/m 16,1 C 17,6 C 12,9 km/h (3 Bft)
01.06.2016 00:33 17,6 C 91 % 1012,5 hPa 0,0 l/m 4,2 km/h (1 Bft) SO 124 0 min 0 W/m 16,1 C 17,6 C 12,9 km/h (3 Bft)
01.06.2016 00:36 17,6 C 91 % 1012,5 hPa 0,0 l/m 3,1 km/h (1 Bft) N-NO 16 0 min 0 W/m 16,1 C 17,6 C 6,4 km/h (2 Bft)
01.06.2016 00:39 17,6 C 91 % 1012,4 hPa 0,0 l/m 1,7 km/h (1 Bft) N-NO 24 0 min 0 W/m 16,1 C 17,6 C 6,4 km/h (2 Bft)
01.06.2016 00:42 17,5 C 91 % 1012,5 hPa 0,0 l/m 1,1 km/h (1 Bft) O-NO 71 0 min 0 W/m 16,0 C 17,5 C 4,8 km/h (1 Bft)
01.06.2016 00:45 17,5 C 91 % 1012,4 hPa 0,0 l/m 3,0 km/h (1 Bft) N-NO 16 0 min 0 W/m 16,0 C 17,5 C 6,4 km/h (2 Bft)
01.06.2016 00:48 17,4 C 91 % 1012,4 hPa 0,0 l/m 3,9 km/h (1 Bft) NO 53 0 min 0 W/m 15,9 C 17,4 C 9,7 km/h (2 Bft)
01.06.2016 00:51 17,4 C 91 % 1012,4 hPa 0,0 l/m 2,1 km/h (1 Bft) N-NW 333 0 min 0 W/m 15,9 C 17,4 C 4,8 km/h (1 Bft)
01.06.2016 00:54 17,3 C 91 % 1012,5 hPa 0,0 l/m 3,4 km/h (1 Bft) N-NO 25 0 min 0 W/m 15,8 C 17,3 C 11,3 km/h (2 Bft)
01.06.2016 00:57 17,3 C 91 % 1012,4 hPa 0,0 l/m 2,7 km/h (1 Bft) N-NO 23 0 min 0 W/m 15,8 C 17,3 C 11,3 km/h (2 Bft)
01.06.2016 01:00 17,3 C 91 % 1012,5 hPa 0,0 l/m 2,4 km/h (1 Bft) NO 53 0 min 0 W/m 15,8 C 17,3 C 4,8 km/h (1 Bft)
01.06.2016 01:03 17,3 C 92 % 1012,4 hPa 0,0 l/m 2,8 km/h (1 Bft) W 260 0 min 0 W/m 16,0 C 17,3 C 8,0 km/h (2 Bft)
01.06.2016 01:06 17,3 C 91 % 1012,4 hPa 0,0 l/m 2,9 km/h (1 Bft) NW 306 0 min 0 W/m 15,8 C 17,3 C 9,7 km/h (2 Bft)
01.06.2016 01:09 17,3 C 92 % 1012,4 hPa 0,0 l/m 2,2 km/h (1 Bft) N-NO 27 0 min 0 W/m 16,0 C 17,3 C 8,0 km/h (2 Bft)
01.06.2016 01:12 17,2 C 92 % 1012,4 hPa 0,0 l/m 2,8 km/h (1 Bft) O-SO 102 0 min 0 W/m 15,9 C 17,2 C 8,0 km/h (2 Bft)
01.06.2016 01:15 17,2 C 92 % 1012,5 hPa 0,0 l/m 3,6 km/h (1 Bft) N 5 0 min 0 W/m 15,9 C 17,2 C 8,0 km/h (2 Bft)
01.06.2016 01:18 17,2 C 92 % 1012,6 hPa 0,0 l/m 2,5 km/h (1 Bft) N-NO 25 0 min 0 W/m 15,9 C 17,2 C 8,0 km/h (2 Bft)
01.06.2016 01:21 17,2 C 92 % 1012,6 hPa 0,0 l/m 4,6 km/h (1 Bft) NO 44 0 min 0 W/m 15,9 C 17,2 C 11,3 km/h (2 Bft)
01.06.2016 01:24 17,2 C 92 % 1012,6 hPa 0,0 l/m 3,0 km/h (1 Bft) NO 49 0 min 0 W/m 15,9 C 17,2 C 8,0 km/h (2 Bft)
01.06.2016 01:27 17,2 C 92 % 1012,6 hPa 0,0 l/m 4,6 km/h (1 Bft) NO 36 0 min 0 W/m 15,9 C 17,2 C 11,3 km/h (2 Bft)
01.06.2016 01:30 17,1 C 92 % 1012,6 hPa 0,0 l/m 4,3 km/h (1 Bft) SW 225 0 min 0 W/m 15,8 C 17,1 C 6,4 km/h (2 Bft)
01.06.2016 01:33 17,1 C 92 % 1012,6 hPa 0,0 l/m 3,0 km/h (1 Bft) N-NO 20 0 min 0 W/m 15,8 C 17,1 C 9,7 km/h (2 Bft)
01.06.2016 01:36 17,1 C 92 % 1012,6 hPa 0,0 l/m 4,8 km/h (1 Bft) N 355 0 min 0 W/m 15,8 C 17,1 C 12,9 km/h (3 Bft)
01.06.2016 01:39 17,1 C 92 % 1012,5 hPa 0,0 l/m 2,2 km/h (1 Bft) N 11 0 min 0 W/m 15,8 C 17,1 C 6,4 km/h (2 Bft)
01.06.2016 01:42 17,0 C 92 % 1012,6 hPa 0,0 l/m 3,5 km/h (1 Bft) O-NO 78 0 min 0 W/m 15,7 C 17,0 C 11,3 km/h (2 Bft)
01.06.2016 01:45 17,0 C 92 % 1012,6 hPa 0,0 l/m 1,8 km/h (1 Bft) NW 324 0 min 0 W/m 15,7 C 17,0 C 4,8 km/h (1 Bft)
01.06.2016 01:48 16,9 C 92 % 1012,6 hPa 0,0 l/m 2,5 km/h (1 Bft) W-NW 282 0 min 0 W/m 15,6 C 16,9 C 4,8 km/h (1 Bft)
01.06.2016 01:51 16,9 C 92 % 1012,6 hPa 0,0 l/m 2,5 km/h (1 Bft) N-NW 342 0 min 0 W/m 15,6 C 16,9 C 4,8 km/h (1 Bft)
01.06.2016 01:54 16,9 C 93 % 1012,6 hPa 0,0 l/m 3,0 km/h (1 Bft) O-SO 106 0 min 0 W/m 15,8 C 16,9 C 8,0 km/h (2 Bft)
01.06.2016 01:57 16,9 C 93 % 1012,6 hPa 0,0 l/m 3,8 km/h (1 Bft) N-NO 16 0 min 0 W/m 15,8 C 16,9 C 11,3 km/h (2 Bft)
01.06.2016 02:00 16,9 C 93 % 1012,6 hPa 0,0 l/m 2,9 km/h (1 Bft) O-SO 109 0 min 0 W/m 15,8 C 16,9 C 9,7 km/h (2 Bft)
01.06.2016 02:03 16,9 C 93 % 1012,6 hPa 0,0 l/m 2,6 km/h (1 Bft) NO 55 0 min 0 W/m 15,8 C 16,9 C 6,4 km/h (2 Bft)
01.06.2016 02:06 16,9 C 93 % 1012,6 hPa 0,0 l/m 2,8 km/h (1 Bft) N 9 0 min 0 W/m 15,8 C 16,9 C 8,0 km/h (2 Bft)
01.06.2016 02:09 16,9 C 93 % 1012,6 hPa 0,0 l/m 2,0 km/h (1 Bft) NO 35 0 min 0 W/m 15,8 C 16,9 C 6,4 km/h (2 Bft)
01.06.2016 02:12 16,8 C 93 % 1012,6 hPa 0,0 l/m 1,6 km/h (1 Bft) N-NW 331 0 min 0 W/m 15,7 C 16,8 C 4,8 km/h (1 Bft)
01.06.2016 02:15 16,8 C 93 % 1012,6 hPa 0,0 l/m 1,9 km/h (1 Bft) NO 35 0 min 0 W/m 15,7 C 16,8 C 4,8 km/h (1 Bft)
01.06.2016 02:18 16,8 C 93 % 1012,6 hPa 0,0 l/m 1,3 km/h (1 Bft) O 92 0 min 0 W/m 15,7 C 16,8 C 4,8 km/h (1 Bft)
01.06.2016 02:21 16,8 C 93 % 1012,5 hPa 0,0 l/m 1,8 km/h (1 Bft) NO 55 0 min 0 W/m 15,7 C 16,8 C 6,4 km/h (2 Bft)
01.06.2016 02:24 16,8 C 93 % 1012,6 hPa 0,0 l/m 1,5 km/h (1 Bft) N-NO 24 0 min 0 W/m 15,7 C 16,8 C 4,8 km/h (1 Bft)
01.06.2016 02:27 16,8 C 93 % 1012,7 hPa 0,0 l/m 0,4 km/h (0 Bft) N-NO 24 0 min 0 W/m 15,7 C 16,8 C 1,6 km/h (1 Bft)
01.06.2016 02:30 16,8 C 93 % 1012,7 hPa 0,0 l/m 0,3 km/h (0 Bft) N-NO 17 0 min 0 W/m 15,7 C 16,8 C 1,6 km/h (1 Bft)
01.06.2016 02:33 16,8 C 93 % 1012,6 hPa 0,0 l/m 0,2 km/h (0 Bft) N-NO 17 0 min 0 W/m 15,7 C 16,8 C 1,6 km/h (1 Bft)
01.06.2016 02:36 16,8 C 93 % 1012,6 hPa 0,0 l/m 1,0 km/h (0 Bft) N-NO 15 0 min 0 W/m 15,7 C 16,8 C 3,2 km/h (1 Bft)
01.06.2016 02:39 16,8 C 93 % 1012,6 hPa 0,0 l/m 0,2 km/h (0 Bft) N-NO 15 0 min 0 W/m 15,7 C 16,8 C 1,6 km/h (1 Bft)
01.06.2016 02:42 16,8 C 93 % 1012,6 hPa 0,0 l/m 0,9 km/h (0 Bft) N-NO 30 0 min 0 W/m 15,7 C 16,8 C 4,8 km/h (1 Bft)
01.06.2016 02:45 16,8 C 93 % 1012,5 hPa 0,0 l/m 0,7 km/h (0 Bft) N-NO 30 0 min 0 W/m 15,7 C 16,8 C 1,6 km/h (1 Bft)
01.06.2016 02:48 16,8 C 93 % 1012,5 hPa 0,0 l/m 1,1 km/h (1 Bft) N-NO 31 0 min 0 W/m 15,7 C 16,8 C 3,2 km/h (1 Bft)
01.06.2016 02:51 16,8 C 93 % 1012,5 hPa 0,0 l/m 1,4 km/h (1 Bft) W 281 0 min 0 W/m 15,7 C 16,8 C 4,8 km/h (1 Bft)
01.06.2016 02:54 16,7 C 93 % 1012,4 hPa 0,0 l/m 1,2 km/h (1 Bft) W 281 0 min 0 W/m 15,6 C 16,7 C 3,2 km/h (1 Bft)
01.06.2016 02:57 16,7 C 93 % 1012,5 hPa 0,0 l/m 1,5 km/h (1 Bft) W 267 0 min 0 W/m 15,6 C 16,7 C 4,8 km/h (1 Bft)
01.06.2016 03:00 16,7 C 94 % 1012,5 hPa 0,0 l/m 1,6 km/h (1 Bft) N-NW 336 0 min 0 W/m 15,7 C 16,7 C 3,2 km/h (1 Bft)
01.06.2016 03:03 16,7 C 94 % 1012,5 hPa 0,0 l/m 1,1 km/h (1 Bft) N-NW 330 0 min 0 W/m 15,7 C 16,7 C 3,2 km/h (1 Bft)
01.06.2016 03:06 16,7 C 94 % 1012,4 hPa 0,0 l/m 1,1 km/h (1 Bft) N-NW 344 0 min 0 W/m 15,7 C 16,7 C 3,2 km/h (1 Bft)
01.06.2016 03:09 16,7 C 94 % 1012,5 hPa 0,0 l/m 2,0 km/h (1 Bft) O 88 0 min 0 W/m 15,7 C 16,7 C 4,8 km/h (1 Bft)
01.06.2016 03:12 16,7 C 94 % 1012,5 hPa 0,0 l/m 1,7 km/h (1 Bft) O-NO 69 0 min 0 W/m 15,7 C 16,7 C 6,4 km/h (2 Bft)
01.06.2016 03:15 16,7 C 94 % 1012,5 hPa 0,0 l/m 1,3 km/h (1 Bft) S-SO 160 0 min 0 W/m 15,7 C 16,7 C 6,4 km/h (2 Bft)
01.06.2016 03:18 16,7 C 94 % 1012,5 hPa 0,0 l/m 1,2 km/h (1 Bft) O 88 0 min 0 W/m 15,7 C 16,7 C 4,8 km/h (1 Bft)
01.06.2016 03:21 16,6 C 94 % 1012,5 hPa 0,0 l/m 1,3 km/h (1 Bft) O 87 0 min 0 W/m 15,6 C 16,6 C 3,2 km/h (1 Bft)
01.06.2016 03:24 16,6 C 94 % 1012,6 hPa 0,0 l/m 2,2 km/h (1 Bft) NO 44 0 min 0 W/m 15,6 C 16,6 C 6,4 km/h (2 Bft)
01.06.2016 03:27 16,6 C 94 % 1012,5 hPa 0,0 l/m 0,1 km/h (0 Bft) O-NO 65 0 min 0 W/m 15,6 C 16,6 C 1,6 km/h (1 Bft)
01.06.2016 03:30 16,6 C 94 % 1012,5 hPa 0,0 l/m 1,2 km/h (1 Bft) NO 56 0 min 0 W/m 15,6 C 16,6 C 3,2 km/h (1 Bft)
01.06.2016 03:33 16,6 C 94 % 1012,5 hPa 0,0 l/m 1,1 km/h (1 Bft) W 261 0 min 0 W/m 15,6 C 16,6 C 3,2 km/h (1 Bft)
01.06.2016 03:36 16,6 C 94 % 1012,5 hPa 0,0 l/m 1,6 km/h (1 Bft) O-NO 61 0 min 0 W/m 15,6 C 16,6 C 4,8 km/h (1 Bft)
01.06.2016 03:39 16,5 C 94 % 1012,5 hPa 0,0 l/m 2,4 km/h (1 Bft) N-NO 17 0 min 0 W/m 15,5 C 16,5 C 4,8 km/h (1 Bft)
01.06.2016 03:42 16,6 C 94 % 1012,5 hPa 0,0 l/m 2,8 km/h (1 Bft) N-NO 27 0 min 0 W/m 15,6 C 16,6 C 6,4 km/h (2 Bft)
01.06.2016 03:45 16,5 C 94 % 1012,6 hPa 0,0 l/m 0,6 km/h (0 Bft) S 190 0 min 0 W/m 15,5 C 16,5 C 3,2 km/h (1 Bft)
01.06.2016 03:48 16,5 C 94 % 1012,6 hPa 0,0 l/m 0,8 km/h (0 Bft) NO 49 0 min 0 W/m 15,5 C 16,5 C 3,2 km/h (1 Bft)
01.06.2016 03:51 16,4 C 94 % 1012,6 hPa 0,0 l/m 0,9 km/h (0 Bft) NW 309 0 min 0 W/m 15,4 C 16,4 C 3,2 km/h (1 Bft)
01.06.2016 03:54 16,4 C 94 % 1012,5 hPa 0,0 l/m 1,7 km/h (1 Bft) N-NO 24 0 min 0 W/m 15,4 C 16,4 C 3,2 km/h (1 Bft)
01.06.2016 03:57 16,4 C 94 % 1012,5 hPa 0,0 l/m 1,2 km/h (1 Bft) W-NW 291 0 min 0 W/m 15,4 C 16,4 C 3,2 km/h (1 Bft)
01.06.2016 04:00 16,4 C 94 % 1012,5 hPa 0,0 l/m 1,6 km/h (1 Bft) S 169 0 min 0 W/m 15,4 C 16,4 C 4,8 km/h (1 Bft)
01.06.2016 04:03 16,3 C 94 % 1012,5 hPa 0,0 l/m 2,4 km/h (1 Bft) W-NW 282 0 min 0 W/m 15,3 C 16,3 C 4,8 km/h (1 Bft)
01.06.2016 04:06 16,3 C 94 % 1012,6 hPa 0,0 l/m 0,8 km/h (0 Bft) N-NW 340 0 min 0 W/m 15,3 C 16,3 C 4,8 km/h (1 Bft)
01.06.2016 04:09 16,3 C 94 % 1012,6 hPa 0,0 l/m 1,3 km/h (1 Bft) NW 323 0 min 0 W/m 15,3 C 16,3 C 3,2 km/h (1 Bft)
01.06.2016 04:12 16,3 C 94 % 1012,5 hPa 0,0 l/m 1,5 km/h (1 Bft) N 355 0 min 0 W/m 15,3 C 16,3 C 6,4 km/h (2 Bft)
01.06.2016 04:15 16,3 C 94 % 1012,5 hPa 0,0 l/m 2,1 km/h (1 Bft) N-NW 344 0 min 0 W/m 15,3 C 16,3 C 6,4 km/h (2 Bft)
01.06.2016 04:18 16,2 C 94 % 1012,6 hPa 0,0 l/m 1,9 km/h (1 Bft) NO 47 0 min 0 W/m 15,2 C 16,2 C 9,7 km/h (2 Bft)
01.06.2016 04:21 16,2 C 94 % 1012,5 hPa 0,0 l/m 1,1 km/h (1 Bft) NO 47 0 min 0 W/m 15,2 C 16,2 C 4,8 km/h (1 Bft)
01.06.2016 04:24 16,2 C 94 % 1012,5 hPa 0,0 l/m 0,5 km/h (0 Bft) NO 44 0 min 0 W/m 15,2 C 16,2 C 4,8 km/h (1 Bft)
01.06.2016 04:27 16,2 C 95 % 1012,6 hPa 0,0 l/m 0,7 km/h (0 Bft) NO 44 0 min 0 W/m 15,4 C 16,2 C 3,2 km/h (1 Bft)
01.06.2016 04:30 16,2 C 95 % 1012,6 hPa 0,0 l/m 1,3 km/h (1 Bft) N-NW 335 0 min 0 W/m 15,4 C 16,2 C 3,2 km/h (1 Bft)
01.06.2016 04:33 16,1 C 95 % 1012,6 hPa 0,0 l/m 0,7 km/h (0 Bft) N-NW 335 0 min 0 W/m 15,3 C 16,1 C 3,2 km/h (1 Bft)
01.06.2016 04:36 16,1 C 95 % 1012,6 hPa 0,0 l/m 1,1 km/h (1 Bft) N-NW 341 0 min 0 W/m 15,3 C 16,1 C 4,8 km/h (1 Bft)
01.06.2016 04:39 16,1 C 95 % 1012,6 hPa 0,0 l/m 1,4 km/h (1 Bft) O-SO 109 0 min 0 W/m 15,3 C 16,1 C 4,8 km/h (1 Bft)
01.06.2016 04:42 16,1 C 95 % 1012,6 hPa 0,0 l/m 1,7 km/h (1 Bft) N 5 0 min 0 W/m 15,3 C 16,1 C 6,4 km/h (2 Bft)
01.06.2016 04:45 16,1 C 95 % 1012,6 hPa 0,0 l/m 1,5 km/h (1 Bft) NO 35 0 min 0 W/m 15,3 C 16,1 C 6,4 km/h (2 Bft)
01.06.2016 04:48 16,2 C 95 % 1012,6 hPa 0,0 l/m 1,0 km/h (0 Bft) NW 314 0 min 0 W/m 15,4 C 16,2 C 3,2 km/h (1 Bft)
01.06.2016 04:51 16,2 C 95 % 1012,6 hPa 0,0 l/m 2,5 km/h (1 Bft) NO 55 0 min 0 W/m 15,4 C 16,2 C 4,8 km/h (1 Bft)
01.06.2016 04:54 16,2 C 95 % 1012,6 hPa 0,0 l/m 2,6 km/h (1 Bft) N 355 0 min 0 W/m 15,4 C 16,2 C 8,0 km/h (2 Bft)
01.06.2016 04:57 16,2 C 95 % 1012,5 hPa 0,0 l/m 1,6 km/h (1 Bft) N-NW 329 0 min 0 W/m 15,4 C 16,2 C 4,8 km/h (1 Bft)
01.06.2016 05:00 16,2 C 95 % 1012,6 hPa 0,0 l/m 2,9 km/h (1 Bft) NO 51 0 min 0 W/m 15,4 C 16,2 C 6,4 km/h (2 Bft)
01.06.2016 05:03 16,2 C 95 % 1012,7 hPa 0,0 l/m 2,1 km/h (1 Bft) N-NW 335 0 min 0 W/m 15,4 C 16,2 C 4,8 km/h (1 Bft)
01.06.2016 05:06 16,2 C 95 % 1012,8 hPa 0,0 l/m 1,6 km/h (1 Bft) W 259 0 min 0 W/m 15,4 C 16,2 C 4,8 km/h (1 Bft)
01.06.2016 05:09 16,2 C 95 % 1012,8 hPa 0,0 l/m 2,0 km/h (1 Bft) NW 319 0 min 0 W/m 15,4 C 16,2 C 4,8 km/h (1 Bft)
01.06.2016 05:12 16,3 C 95 % 1012,8 hPa 0,0 l/m 3,7 km/h (1 Bft) N-NO 23 0 min 0 W/m 15,5 C 16,3 C 11,3 km/h (2 Bft)
01.06.2016 05:15 16,2 C 94 % 1012,8 hPa 0,0 l/m 2,4 km/h (1 Bft) NO 44 0 min 0 W/m 15,2 C 16,2 C 4,8 km/h (1 Bft)
01.06.2016 05:18 16,2 C 94 % 1012,8 hPa 0,0 l/m 2,1 km/h (1 Bft) N 5 0 min 0 W/m 15,2 C 16,2 C 4,8 km/h (1 Bft)
01.06.2016 05:21 16,3 C 94 % 1012,9 hPa 0,0 l/m 2,1 km/h (1 Bft) N 360 0 min 0 W/m 15,3 C 16,3 C 6,4 km/h (2 Bft)
01.06.2016 05:24 16,3 C 94 % 1012,9 hPa 0,0 l/m 1,5 km/h (1 Bft) N 350 0 min 0 W/m 15,3 C 16,3 C 6,4 km/h (2 Bft)
01.06.2016 05:27 16,3 C 94 % 1012,8 hPa 0,0 l/m 2,8 km/h (1 Bft) N-NO 30 0 min 5 W/m 15,3 C 16,3 C 6,4 km/h (2 Bft)
01.06.2016 05:30 16,3 C 94 % 1012,9 hPa 0,0 l/m 1,8 km/h (1 Bft) N-NO 32 0 min 7 W/m 15,3 C 16,3 C 6,4 km/h (2 Bft)
01.06.2016 05:33 16,3 C 94 % 1012,8 hPa 0,0 l/m 2,9 km/h (1 Bft) N 355 0 min 7 W/m 15,3 C 16,3 C 9,7 km/h (2 Bft)
01.06.2016 05:36 16,3 C 94 % 1012,8 hPa 0,0 l/m 1,9 km/h (1 Bft) O-NO 63 0 min 9 W/m 15,3 C 16,3 C 4,8 km/h (1 Bft)
01.06.2016 05:39 16,3 C 94 % 1012,8 hPa 0,0 l/m 3,0 km/h (1 Bft) N-NO 27 0 min 9 W/m 15,3 C 16,3 C 6,4 km/h (2 Bft)
01.06.2016 05:42 16,3 C 94 % 1012,9 hPa 0,0 l/m 1,7 km/h (1 Bft) N 355 0 min 11 W/m 15,3 C 16,3 C 3,2 km/h (1 Bft)
01.06.2016 05:45 16,3 C 94 % 1012,9 hPa 0,0 l/m 1,4 km/h (1 Bft) N-NW 344 0 min 11 W/m 15,3 C 16,3 C 3,2 km/h (1 Bft)
01.06.2016 05:48 16,3 C 94 % 1012,8 hPa 0,0 l/m 1,5 km/h (1 Bft) NW 323 0 min 12 W/m 15,3 C 16,3 C 4,8 km/h (1 Bft)
01.06.2016 05:51 16,3 C 94 % 1012,8 hPa 0,0 l/m 1,3 km/h (1 Bft) O 101 0 min 12 W/m 15,3 C 16,3 C 3,2 km/h (1 Bft)
01.06.2016 05:54 16,3 C 94 % 1012,9 hPa 0,0 l/m 1,6 km/h (1 Bft) NO 44 0 min 14 W/m 15,3 C 16,3 C 3,2 km/h (1 Bft)
01.06.2016 05:57 16,3 C 94 % 1012,9 hPa 0,0 l/m 3,0 km/h (1 Bft) NW 305 0 min 14 W/m 15,3 C 16,3 C 8,0 km/h (2 Bft)
01.06.2016 06:00 16,3 C 94 % 1012,8 hPa 0,0 l/m 2,1 km/h (1 Bft) NW 317 0 min 16 W/m 15,3 C 16,3 C 8,0 km/h (2 Bft)
01.06.2016 06:03 16,3 C 94 % 1012,8 hPa 0,0 l/m 2,3 km/h (1 Bft) N-NO 33 0 min 18 W/m 15,3 C 16,3 C 4,8 km/h (1 Bft)
01.06.2016 06:06 16,3 C 94 % 1012,9 hPa 0,0 l/m 1,7 km/h (1 Bft) N-NW 344 0 min 19 W/m 15,3 C 16,3 C 4,8 km/h (1 Bft)
01.06.2016 06:09 16,3 C 94 % 1012,9 hPa 0,0 l/m 2,9 km/h (1 Bft) N-NW 327 0 min 19 W/m 15,3 C 16,3 C 12,9 km/h (3 Bft)
01.06.2016 06:12 16,4 C 94 % 1012,9 hPa 0,0 l/m 3,0 km/h (1 Bft) N-NO 28 0 min 21 W/m 15,4 C 16,4 C 8,0 km/h (2 Bft)
01.06.2016 06:15 16,4 C 94 % 1012,9 hPa 0,0 l/m 2,2 km/h (1 Bft) N-NW 340 0 min 23 W/m 15,4 C 16,4 C 4,8 km/h (1 Bft)
01.06.2016 06:18 16,4 C 94 % 1012,9 hPa 0,0 l/m 1,8 km/h (1 Bft) O 86 0 min 26 W/m 15,4 C 16,4 C 8,0 km/h (2 Bft)
01.06.2016 06:21 16,4 C 94 % 1012,8 hPa 0,0 l/m 3,7 km/h (1 Bft) NO 48 0 min 26 W/m 15,4 C 16,4 C 8,0 km/h (2 Bft)
01.06.2016 06:24 16,4 C 94 % 1012,9 hPa 0,0 l/m 2,6 km/h (1 Bft) NO 34 0 min 26 W/m 15,4 C 16,4 C 4,8 km/h (1 Bft)
01.06.2016 06:27 16,4 C 94 % 1013,0 hPa 0,0 l/m 2,4 km/h (1 Bft) NO 34 0 min 28 W/m 15,4 C 16,4 C 6,4 km/h (2 Bft)
01.06.2016 06:30 16,5 C 94 % 1013,0 hPa 0,0 l/m 2,3 km/h (1 Bft) N-NO 22 0 min 28 W/m 15,5 C 16,5 C 6,4 km/h (2 Bft)
01.06.2016 06:33 16,5 C 94 % 1012,9 hPa 0,0 l/m 2,0 km/h (1 Bft) N 355 0 min 30 W/m 15,5 C 16,5 C 4,8 km/h (1 Bft)
01.06.2016 06:36 16,6 C 94 % 1012,9 hPa 0,0 l/m 1,4 km/h (1 Bft) N 355 0 min 35 W/m 15,6 C 16,6 C 4,8 km/h (1 Bft)
01.06.2016 06:39 16,6 C 94 % 1012,8 hPa 0,0 l/m 3,0 km/h (1 Bft) N-NO 22 0 min 42 W/m 15,6 C 16,6 C 8,0 km/h (2 Bft)
01.06.2016 06:42 16,6 C 94 % 1012,7 hPa 0,0 l/m 2,4 km/h (1 Bft) O-NO 78 0 min 44 W/m 15,6 C 16,6 C 6,4 km/h (2 Bft)
01.06.2016 06:45 16,7 C 94 % 1012,7 hPa 0,0 l/m 1,5 km/h (1 Bft) N 350 0 min 49 W/m 15,7 C 16,7 C 4,8 km/h (1 Bft)
01.06.2016 06:48 16,7 C 94 % 1012,8 hPa 0,0 l/m 0,6 km/h (0 Bft) N 351 0 min 54 W/m 15,7 C 16,7 C 1,6 km/h (1 Bft)
01.06.2016 06:51 16,7 C 94 % 1012,8 hPa 0,0 l/m 1,4 km/h (1 Bft) N 351 0 min 58 W/m 15,7 C 16,7 C 3,2 km/h (1 Bft)
01.06.2016 06:54 16,9 C 93 % 1012,7 hPa 0,0 l/m 2,9 km/h (1 Bft) N-NO 28 0 min 49 W/m 15,8 C 16,9 C 4,8 km/h (1 Bft)
01.06.2016 06:57 17,0 C 93 % 1012,8 hPa 0,0 l/m 2,3 km/h (1 Bft) NO 51 0 min 35 W/m 15,9 C 17,0 C 8,0 km/h (2 Bft)
01.06.2016 07:00 17,1 C 93 % 1012,8 hPa 0,0 l/m 2,3 km/h (1 Bft) N-NO 32 0 min 32 W/m 16,0 C 17,1 C 6,4 km/h (2 Bft)
01.06.2016 07:03 17,1 C 92 % 1012,8 hPa 0,0 l/m 2,7 km/h (1 Bft) W-NW 294 0 min 28 W/m 15,8 C 17,1 C 4,8 km/h (1 Bft)
01.06.2016 07:06 17,1 C 92 % 1012,9 hPa 0,0 l/m 2,4 km/h (1 Bft) NO 49 0 min 25 W/m 15,8 C 17,1 C 6,4 km/h (2 Bft)
01.06.2016 07:09 17,0 C 92 % 1012,9 hPa 0,0 l/m 1,3 km/h (1 Bft) NO 46 0 min 25 W/m 15,7 C 17,0 C 4,8 km/h (1 Bft)
01.06.2016 07:12 17,0 C 92 % 1012,9 hPa 0,0 l/m 1,0 km/h (0 Bft) N-NO 29 0 min 26 W/m 15,7 C 17,0 C 3,2 km/h (1 Bft)
01.06.2016 07:15 16,9 C 92 % 1012,9 hPa 0,0 l/m 2,1 km/h (1 Bft) N 360 0 min 26 W/m 15,6 C 16,9 C 4,8 km/h (1 Bft)
01.06.2016 07:18 16,9 C 92 % 1012,9 hPa 0,0 l/m 2,3 km/h (1 Bft) N-NW 327 0 min 30 W/m 15,6 C 16,9 C 6,4 km/h (2 Bft)
01.06.2016 07:21 16,9 C 93 % 1012,8 hPa 0,0 l/m 2,4 km/h (1 Bft) N 350 0 min 35 W/m 15,8 C 16,9 C 6,4 km/h (2 Bft)
01.06.2016 07:24 17,1 C 93 % 1012,9 hPa 0,0 l/m 1,6 km/h (1 Bft) N-NW 344 0 min 35 W/m 16,0 C 17,1 C 4,8 km/h (1 Bft)
01.06.2016 07:27 17,1 C 92 % 1012,9 hPa 0,0 l/m 1,8 km/h (1 Bft) W 280 0 min 39 W/m 15,8 C 17,1 C 4,8 km/h (1 Bft)
01.06.2016 07:30 17,2 C 93 % 1012,9 hPa 0,0 l/m 2,5 km/h (1 Bft) N 349 0 min 46 W/m 16,1 C 17,2 C 8,0 km/h (2 Bft)
01.06.2016 07:33 17,2 C 93 % 1012,9 hPa 0,0 l/m 2,4 km/h (1 Bft) N-NO 21 0 min 54 W/m 16,1 C 17,2 C 8,0 km/h (2 Bft)
01.06.2016 07:36 17,3 C 92 % 1012,9 hPa 0,0 l/m 4,2 km/h (1 Bft) NW 309 0 min 56 W/m 16,0 C 17,3 C 8,0 km/h (2 Bft)
01.06.2016 07:39 17,4 C 92 % 1013,0 hPa 0,0 l/m 3,0 km/h (1 Bft) N-NW 340 0 min 67 W/m 16,1 C 17,4 C 4,8 km/h (1 Bft)
01.06.2016 07:42 17,4 C 92 % 1013,0 hPa 0,0 l/m 3,2 km/h (1 Bft) N-NO 21 0 min 69 W/m 16,1 C 17,4 C 6,4 km/h (2 Bft)
01.06.2016 07:45 17,4 C 92 % 1013,0 hPa 0,0 l/m 1,4 km/h (1 Bft) N 355 0 min 67 W/m 16,1 C 17,4 C 4,8 km/h (1 Bft)
01.06.2016 07:48 17,6 C 92 % 1013,0 hPa 0,0 l/m 2,8 km/h (1 Bft) N 5 0 min 69 W/m 16,3 C 17,6 C 6,4 km/h (2 Bft)
01.06.2016 07:51 17,6 C 92 % 1013,1 hPa 0,0 l/m 3,0 km/h (1 Bft) NW 321 0 min 77 W/m 16,3 C 17,6 C 8,0 km/h (2 Bft)
01.06.2016 07:54 17,7 C 92 % 1013,0 hPa 0,0 l/m 2,8 km/h (1 Bft) N-NO 26 0 min 81 W/m 16,4 C 17,7 C 6,4 km/h (2 Bft)
01.06.2016 07:57 17,7 C 91 % 1013,0 hPa 0,0 l/m 3,4 km/h (1 Bft) N-NO 24 0 min 83 W/m 16,2 C 17,7 C 6,4 km/h (2 Bft)
01.06.2016 08:00 17,8 C 91 % 1013,1 hPa 0,0 l/m 3,3 km/h (1 Bft) N-NW 335 0 min 84 W/m 16,3 C 17,8 C 6,4 km/h (2 Bft)
01.06.2016 08:03 17,8 C 91 % 1013,0 hPa 0,0 l/m 2,4 km/h (1 Bft) N-NO 17 0 min 88 W/m 16,3 C 17,8 C 6,4 km/h (2 Bft)
01.06.2016 08:06 17,8 C 91 % 1013,0 hPa 0,0 l/m 2,3 km/h (1 Bft) N-NW 340 0 min 86 W/m 16,3 C 17,8 C 6,4 km/h (2 Bft)
01.06.2016 08:09 17,8 C 91 % 1013,0 hPa 0,0 l/m 3,0 km/h (1 Bft) N-NW 331 0 min 90 W/m 16,3 C 17,8 C 8,0 km/h (2 Bft)
01.06.2016 08:12 17,9 C 91 % 1013,0 hPa 0,0 l/m 1,8 km/h (1 Bft) NO 45 0 min 93 W/m 16,4 C 17,9 C 4,8 km/h (1 Bft)
01.06.2016 08:15 18,0 C 91 % 1013,1 hPa 0,0 l/m 3,1 km/h (1 Bft) N 5 0 min 105 W/m 16,5 C 18,0 C 6,4 km/h (2 Bft)
01.06.2016 08:18 18,1 C 91 % 1013,1 hPa 0,0 l/m 5,5 km/h (2 Bft) W-NW 288 0 min 109 W/m 16,6 C 18,1 C 9,7 km/h (2 Bft)
01.06.2016 08:21 18,2 C 91 % 1013,1 hPa 0,0 l/m 3,4 km/h (1 Bft) N-NO 30 0 min 118 W/m 16,7 C 18,2 C 9,7 km/h (2 Bft)
01.06.2016 08:24 18,3 C 90 % 1013,1 hPa 0,0 l/m 3,2 km/h (1 Bft) N 355 0 min 132 W/m 16,6 C 18,3 C 11,3 km/h (2 Bft)
01.06.2016 08:27 18,3 C 90 % 1013,1 hPa 0,0 l/m 3,2 km/h (1 Bft) N-NO 24 0 min 156 W/m 16,6 C 18,3 C 8,0 km/h (2 Bft)
01.06.2016 08:30 18,5 C 90 % 1013,1 hPa 0,0 l/m 4,2 km/h (1 Bft) N 355 0 min 144 W/m 16,8 C 18,5 C 9,7 km/h (2 Bft)
01.06.2016 08:33 18,6 C 90 % 1013,1 hPa 0,0 l/m 3,9 km/h (1 Bft) W-NW 296 0 min 111 W/m 16,9 C 18,6 C 11,3 km/h (2 Bft)
01.06.2016 08:36 18,6 C 90 % 1013,1 hPa 0,0 l/m 2,8 km/h (1 Bft) N 355 0 min 84 W/m 16,9 C 18,6 C 6,4 km/h (2 Bft)
01.06.2016 08:39 18,6 C 90 % 1013,2 hPa 0,0 l/m 4,2 km/h (1 Bft) N-NO 19 0 min 81 W/m 16,9 C 18,6 C 8,0 km/h (2 Bft)
01.06.2016 08:42 18,5 C 90 % 1013,2 hPa 0,0 l/m 3,1 km/h (1 Bft) NO 48 0 min 77 W/m 16,8 C 18,5 C 4,8 km/h (1 Bft)
01.06.2016 08:45 18,5 C 90 % 1013,2 hPa 0,0 l/m 2,8 km/h (1 Bft) N-NO 17 0 min 77 W/m 16,8 C 18,5 C 11,3 km/h (2 Bft)
01.06.2016 08:48 18,4 C 90 % 1013,3 hPa 0,0 l/m 4,4 km/h (1 Bft) N 351 0 min 90 W/m 16,7 C 18,4 C 8,0 km/h (2 Bft)
01.06.2016 08:51 18,3 C 90 % 1013,2 hPa 0,0 l/m 2,1 km/h (1 Bft) NO 42 0 min 83 W/m 16,6 C 18,3 C 4,8 km/h (1 Bft)
01.06.2016 08:54 18,5 C 91 % 1013,3 hPa 0,0 l/m 2,4 km/h (1 Bft) NW 323 0 min 72 W/m 17,0 C 18,5 C 8,0 km/h (2 Bft)
01.06.2016 08:57 18,6 C 91 % 1013,3 hPa 0,0 l/m 2,3 km/h (1 Bft) N 355 0 min 69 W/m 17,1 C 18,6 C 11,3 km/h (2 Bft)
01.06.2016 09:00 18,6 C 90 % 1013,3 hPa 0,0 l/m 1,7 km/h (1 Bft) N 349 0 min 74 W/m 16,9 C 18,6 C 4,8 km/h (1 Bft)
01.06.2016 09:03 18,4 C 90 % 1013,3 hPa 0,0 l/m 2,5 km/h (1 Bft) W 271 0 min 84 W/m 16,7 C 18,4 C 4,8 km/h (1 Bft)
01.06.2016 09:06 18,4 C 91 % 1013,3 hPa 0,0 l/m 3,4 km/h (1 Bft) N-NW 344 0 min 88 W/m 16,9 C 18,4 C 6,4 km/h (2 Bft)
01.06.2016 09:09 18,5 C 91 % 1013,4 hPa 0,0 l/m 1,6 km/h (1 Bft) N-NW 336 0 min 104 W/m 17,0 C 18,5 C 4,8 km/h (1 Bft)
01.06.2016 09:12 18,5 C 91 % 1013,4 hPa 0,0 l/m 3,2 km/h (1 Bft) N-NO 25 0 min 113 W/m 17,0 C 18,5 C 8,0 km/h (2 Bft)
01.06.2016 09:15 18,6 C 90 % 1013,4 hPa 0,0 l/m 3,2 km/h (1 Bft) N-NW 335 0 min 107 W/m 16,9 C 18,6 C 8,0 km/h (2 Bft)
01.06.2016 09:18 18,5 C 90 % 1013,5 hPa 0,0 l/m 3,0 km/h (1 Bft) NO 37 0 min 104 W/m 16,8 C 18,5 C 8,0 km/h (2 Bft)
01.06.2016 09:21 18,6 C 91 % 1013,5 hPa 0,0 l/m 3,3 km/h (1 Bft) N 360 0 min 107 W/m 17,1 C 18,6 C 8,0 km/h (2 Bft)
01.06.2016 09:24 18,5 C 91 % 1013,5 hPa 0,0 l/m 3,0 km/h (1 Bft) W-NW 292 0 min 128 W/m 17,0 C 18,5 C 6,4 km/h (2 Bft)
01.06.2016 09:27 18,7 C 92 % 1013,5 hPa 0,0 l/m 1,2 km/h (1 Bft) W-NW 292 0 min 142 W/m 17,4 C 18,7 C 3,2 km/h (1 Bft)
01.06.2016 09:30 18,7 C 91 % 1013,5 hPa 0,0 l/m 3,3 km/h (1 Bft) N-NO 28 0 min 142 W/m 17,2 C 18,7 C 11,3 km/h (2 Bft)
01.06.2016 09:33 18,8 C 91 % 1013,6 hPa 0,0 l/m 2,6 km/h (1 Bft) W-NW 288 0 min 134 W/m 17,3 C 18,8 C 6,4 km/h (2 Bft)
01.06.2016 09:36 18,7 C 91 % 1013,6 hPa 0,0 l/m 3,5 km/h (1 Bft) N-NO 15 0 min 139 W/m 17,2 C 18,7 C 9,7 km/h (2 Bft)
01.06.2016 09:39 18,7 C 91 % 1013,6 hPa 0,0 l/m 3,6 km/h (1 Bft) N-NO 13 0 min 146 W/m 17,2 C 18,7 C 12,9 km/h (3 Bft)
01.06.2016 09:42 18,7 C 91 % 1013,6 hPa 0,0 l/m 5,1 km/h (1 Bft) O-NO 58 0 min 144 W/m 17,2 C 18,7 C 12,9 km/h (3 Bft)
01.06.2016 09:45 18,7 C 91 % 1013,6 hPa 0,0 l/m 3,1 km/h (1 Bft) NW 311 0 min 137 W/m 17,2 C 18,7 C 6,4 km/h (2 Bft)
01.06.2016 09:48 18,6 C 90 % 1013,6 hPa 0,0 l/m 4,8 km/h (1 Bft) O 90 0 min 111 W/m 16,9 C 18,6 C 17,7 km/h (3 Bft)
01.06.2016 09:51 18,6 C 90 % 1013,6 hPa 0,0 l/m 2,7 km/h (1 Bft) NO 49 0 min 107 W/m 16,9 C 18,6 C 8,0 km/h (2 Bft)
01.06.2016 09:54 18,6 C 90 % 1013,6 hPa 0,0 l/m 2,1 km/h (1 Bft) N 355 0 min 111 W/m 16,9 C 18,6 C 4,8 km/h (1 Bft)
01.06.2016 09:57 18,6 C 90 % 1013,7 hPa 0,0 l/m 2,7 km/h (1 Bft) N-NO 21 0 min 100 W/m 16,9 C 18,6 C 6,4 km/h (2 Bft)
01.06.2016 10:00 18,6 C 90 % 1013,7 hPa 0,0 l/m 3,0 km/h (1 Bft) O-SO 105 0 min 109 W/m 16,9 C 18,6 C 6,4 km/h (2 Bft)
01.06.2016 10:03 18,7 C 91 % 1013,7 hPa 0,0 l/m 2,5 km/h (1 Bft) O-SO 112 0 min 97 W/m 17,2 C 18,7 C 6,4 km/h (2 Bft)
01.06.2016 10:06 18,6 C 90 % 1013,7 hPa 0,0 l/m 3,5 km/h (1 Bft) NW 322 0 min 84 W/m 16,9 C 18,6 C 9,7 km/h (2 Bft)
01.06.2016 10:09 18,8 C 91 % 1013,7 hPa 0,0 l/m 2,2 km/h (1 Bft) N-NW 336 0 min 105 W/m 17,3 C 18,8 C 4,8 km/h (1 Bft)
01.06.2016 10:12 18,9 C 90 % 1013,7 hPa 0,0 l/m 2,4 km/h (1 Bft) NO 46 0 min 132 W/m 17,2 C 18,9 C 11,3 km/h (2 Bft)
01.06.2016 10:15 19,0 C 90 % 1013,7 hPa 0,0 l/m 3,2 km/h (1 Bft) SW 236 0 min 172 W/m 17,3 C 19,0 C 9,7 km/h (2 Bft)
01.06.2016 10:18 19,1 C 90 % 1013,6 hPa 0,0 l/m 3,1 km/h (1 Bft) NW 306 0 min 192 W/m 17,4 C 19,1 C 8,0 km/h (2 Bft)
01.06.2016 10:21 19,3 C 89 % 1013,6 hPa 0,0 l/m 3,8 km/h (1 Bft) NO 42 0 min 195 W/m 17,4 C 19,3 C 8,0 km/h (2 Bft)
01.06.2016 10:24 19,4 C 90 % 1013,6 hPa 0,0 l/m 5,7 km/h (2 Bft) W-NW 294 0 min 199 W/m 17,7 C 19,4 C 14,5 km/h (3 Bft)
01.06.2016 10:27 19,5 C 88 % 1013,6 hPa 0,0 l/m 3,8 km/h (1 Bft) NO 46 0 min 178 W/m 17,5 C 19,5 C 8,0 km/h (2 Bft)
01.06.2016 10:30 19,5 C 87 % 1013,5 hPa 0,0 l/m 5,4 km/h (2 Bft) N 355 0 min 149 W/m 17,3 C 19,5 C 14,5 km/h (3 Bft)
01.06.2016 10:33 19,5 C 87 % 1013,5 hPa 0,0 l/m 5,2 km/h (1 Bft) N 9 0 min 160 W/m 17,3 C 19,5 C 12,9 km/h (3 Bft)
01.06.2016 10:36 19,6 C 88 % 1013,5 hPa 0,0 l/m 4,8 km/h (1 Bft) N-NO 32 0 min 174 W/m 17,6 C 19,6 C 11,3 km/h (2 Bft)
01.06.2016 10:39 19,7 C 87 % 1013,5 hPa 0,0 l/m 3,9 km/h (1 Bft) N-NO 16 0 min 165 W/m 17,5 C 19,7 C 14,5 km/h (3 Bft)
01.06.2016 10:42 19,7 C 87 % 1013,5 hPa 0,0 l/m 2,5 km/h (1 Bft) N-NW 346 0 min 251 W/m 17,5 C 19,7 C 6,4 km/h (2 Bft)
01.06.2016 10:45 20,0 C 87 % 1013,4 hPa 0,0 l/m 5,8 km/h (2 Bft) N-NW 333 0 min 316 W/m 17,8 C 20,0 C 14,5 km/h (3 Bft)
01.06.2016 10:48 20,1 C 85 % 1013,4 hPa 0,0 l/m 6,5 km/h (2 Bft) SW 231 0 min 253 W/m 17,5 C 20,1 C 14,5 km/h (3 Bft)
01.06.2016 10:51 20,3 C 86 % 1013,4 hPa 0,0 l/m 2,6 km/h (1 Bft) N 9 0 min 236 W/m 17,9 C 20,3 C 6,4 km/h (2 Bft)
01.06.2016 10:54 20,4 C 85 % 1013,4 hPa 0,0 l/m 3,7 km/h (1 Bft) N-NW 337 0 min 281 W/m 17,8 C 20,4 C 12,9 km/h (3 Bft)
01.06.2016 10:57 20,6 C 84 % 1013,6 hPa 0,0 l/m 4,0 km/h (1 Bft) NW 308 0 min 355 W/m 17,8 C 20,6 C 11,3 km/h (2 Bft)
01.06.2016 11:00 20,4 C 84 % 1013,6 hPa 0,0 l/m 3,9 km/h (1 Bft) N-NW 333 0 min 221 W/m 17,6 C 20,4 C 8,0 km/h (2 Bft)
01.06.2016 11:03 20,6 C 85 % 1013,5 hPa 0,0 l/m 5,1 km/h (1 Bft) N-NO 24 0 min 350 W/m 18,0 C 20,6 C 9,7 km/h (2 Bft)
01.06.2016 11:06 20,8 C 85 % 1013,4 hPa 0,0 l/m 3,5 km/h (1 Bft) W 265 0 min 269 W/m 18,2 C 20,8 C 6,4 km/h (2 Bft)
01.06.2016 11:09 21,2 C 83 % 1013,4 hPa 0,0 l/m 4,7 km/h (1 Bft) N 355 0 min 320 W/m 18,2 C 21,2 C 12,9 km/h (3 Bft)
01.06.2016 11:12 21,2 C 83 % 1013,4 hPa 0,0 l/m 5,8 km/h (2 Bft) N 360 0 min 338 W/m 18,2 C 21,2 C 9,7 km/h (2 Bft)
01.06.2016 11:15 21,3 C 82 % 1013,4 hPa 0,0 l/m 4,3 km/h (1 Bft) N-NO 22 0 min 251 W/m 18,1 C 21,3 C 6,4 km/h (2 Bft)
01.06.2016 11:18 21,3 C 81 % 1013,5 hPa 0,0 l/m 3,9 km/h (1 Bft) W-SW 252 0 min 272 W/m 17,9 C 21,3 C 12,9 km/h (3 Bft)
01.06.2016 11:21 21,2 C 83 % 1013,5 hPa 0,0 l/m 4,2 km/h (1 Bft) N 11 0 min 297 W/m 18,2 C 21,2 C 11,3 km/h (2 Bft)
01.06.2016 11:24 21,8 C 83 % 1013,4 hPa 0,0 l/m 3,8 km/h (1 Bft) N-NO 14 3 min 742 W/m 18,8 C 21,8 C 6,4 km/h (2 Bft)
01.06.2016 11:27 22,2 C 81 % 1013,5 hPa 0,0 l/m 6,8 km/h (2 Bft) N-NW 339 3 min 742 W/m 18,8 C 22,1 C 11,3 km/h (2 Bft)
01.06.2016 11:30 22,6 C 79 % 1013,4 hPa 0,0 l/m 6,4 km/h (2 Bft) NO 35 3 min 701 W/m 18,8 C 22,6 C 12,9 km/h (3 Bft)
01.06.2016 11:33 22,5 C 77 % 1013,4 hPa 0,0 l/m 5,1 km/h (1 Bft) N 360 0 min 269 W/m 18,3 C 22,5 C 16,1 km/h (3 Bft)
01.06.2016 11:36 22,6 C 78 % 1013,4 hPa 0,0 l/m 4,0 km/h (1 Bft) W-NW 302 0 min 269 W/m 18,6 C 22,6 C 9,7 km/h (2 Bft)
01.06.2016 11:39 22,7 C 77 % 1013,4 hPa 0,0 l/m 5,5 km/h (2 Bft) N 11 0 min 213 W/m 18,5 C 22,7 C 14,5 km/h (3 Bft)
01.06.2016 11:42 22,6 C 79 % 1013,3 hPa 0,0 l/m 3,6 km/h (1 Bft) N-NO 17 0 min 304 W/m 18,8 C 22,6 C 6,4 km/h (2 Bft)
01.06.2016 11:45 22,3 C 79 % 1013,4 hPa 0,0 l/m 4,8 km/h (1 Bft) NO 56 0 min 304 W/m 18,5 C 22,3 C 11,3 km/h (2 Bft)
01.06.2016 11:48 22,2 C 80 % 1013,3 hPa 0,0 l/m 4,2 km/h (1 Bft) N-NO 25 0 min 225 W/m 18,6 C 22,2 C 8,0 km/h (2 Bft)
01.06.2016 11:51 22,1 C 80 % 1013,3 hPa 0,0 l/m 5,7 km/h (2 Bft) N-NO 22 0 min 197 W/m 18,5 C 22,1 C 17,7 km/h (3 Bft)
01.06.2016 11:54 21,9 C 81 % 1013,2 hPa 0,0 l/m 4,4 km/h (1 Bft) N-NW 338 0 min 199 W/m 18,5 C 21,9 C 6,4 km/h (2 Bft)
01.06.2016 11:57 21,8 C 80 % 1013,2 hPa 0,0 l/m 4,5 km/h (1 Bft) N-NW 338 0 min 213 W/m 18,2 C 21,8 C 11,3 km/h (2 Bft)
01.06.2016 12:00 21,9 C 80 % 1013,2 hPa 0,0 l/m 4,8 km/h (1 Bft) NW 306 0 min 218 W/m 18,3 C 21,9 C 11,3 km/h (2 Bft)
01.06.2016 12:03 22,1 C 81 % 1013,2 hPa 0,0 l/m 3,5 km/h (1 Bft) N-NW 346 0 min 287 W/m 18,7 C 22,1 C 6,4 km/h (2 Bft)
01.06.2016 12:06 22,2 C 80 % 1013,1 hPa 0,0 l/m 4,0 km/h (1 Bft) N-NW 331 0 min 269 W/m 18,6 C 22,2 C 8,0 km/h (2 Bft)
01.06.2016 12:09 22,3 C 80 % 1013,1 hPa 0,0 l/m 3,9 km/h (1 Bft) NO 48 0 min 251 W/m 18,7 C 22,3 C 8,0 km/h (2 Bft)
01.06.2016 12:12 22,0 C 80 % 1013,1 hPa 0,0 l/m 5,0 km/h (1 Bft) N-NW 329 0 min 251 W/m 18,4 C 22,0 C 8,0 km/h (2 Bft)
01.06.2016 12:15 21,9 C 81 % 1013,1 hPa 0,0 l/m 5,7 km/h (2 Bft) N-NW 344 0 min 269 W/m 18,5 C 21,9 C 11,3 km/h (2 Bft)
01.06.2016 12:18 22,0 C 81 % 1013,1 hPa 0,0 l/m 5,0 km/h (1 Bft) N-NW 341 0 min 265 W/m 18,6 C 22,0 C 8,0 km/h (2 Bft)
01.06.2016 12:21 22,2 C 80 % 1013,0 hPa 0,0 l/m 5,6 km/h (2 Bft) N 5 0 min 250 W/m 18,6 C 22,2 C 14,5 km/h (3 Bft)
01.06.2016 12:24 22,3 C 81 % 1013,0 hPa 0,0 l/m 3,1 km/h (1 Bft) NW 319 0 min 274 W/m 18,9 C 22,3 C 4,8 km/h (1 Bft)
01.06.2016 12:27 22,4 C 81 % 1013,0 hPa 0,0 l/m 5,6 km/h (2 Bft) N-NO 28 0 min 359 W/m 19,0 C 22,4 C 8,0 km/h (2 Bft)
01.06.2016 12:30 22,6 C 81 % 1013,0 hPa 0,0 l/m 4,1 km/h (1 Bft) N 350 0 min 396 W/m 19,2 C 22,6 C 9,7 km/h (2 Bft)
01.06.2016 12:33 22,8 C 79 % 1012,9 hPa 0,0 l/m 5,1 km/h (1 Bft) N-NW 347 0 min 357 W/m 19,0 C 22,8 C 11,3 km/h (2 Bft)
01.06.2016 12:36 22,9 C 77 % 1012,9 hPa 0,0 l/m 6,1 km/h (2 Bft) N-NO 17 0 min 341 W/m 18,6 C 22,9 C 11,3 km/h (2 Bft)
01.06.2016 12:39 23,2 C 78 % 1012,9 hPa 0,0 l/m 4,1 km/h (1 Bft) N-NW 339 0 min 350 W/m 19,1 C 23,2 C 12,9 km/h (3 Bft)
01.06.2016 12:42 23,3 C 76 % 1012,9 hPa 0,0 l/m 6,0 km/h (2 Bft) N-NW 338 0 min 306 W/m 18,8 C 23,3 C 12,9 km/h (3 Bft)
01.06.2016 12:45 23,3 C 77 % 1012,9 hPa 0,0 l/m 4,6 km/h (1 Bft) N-NW 348 0 min 272 W/m 19,0 C 23,3 C 9,7 km/h (2 Bft)
01.06.2016 12:48 23,4 C 76 % 1012,9 hPa 0,0 l/m 7,0 km/h (2 Bft) NW 312 0 min 308 W/m 18,9 C 23,2 C 14,5 km/h (3 Bft)
01.06.2016 12:51 23,9 C 75 % 1012,8 hPa 0,0 l/m 3,7 km/h (1 Bft) N-NW 340 0 min 346 W/m 19,2 C 23,9 C 8,0 km/h (2 Bft)
01.06.2016 12:54 23,8 C 74 % 1012,8 hPa 0,0 l/m 5,5 km/h (2 Bft) N-NO 21 0 min 390 W/m 18,9 C 23,8 C 16,1 km/h (3 Bft)
01.06.2016 12:57 23,8 C 75 % 1012,8 hPa 0,0 l/m 6,1 km/h (2 Bft) W-NW 300 3 min 475 W/m 19,1 C 23,8 C 12,9 km/h (3 Bft)
01.06.2016 13:00 24,2 C 74 % 1012,8 hPa 0,0 l/m 6,4 km/h (2 Bft) O-NO 65 0 min 424 W/m 19,3 C 24,2 C 14,5 km/h (3 Bft)
01.06.2016 13:03 24,1 C 74 % 1012,9 hPa 0,0 l/m 5,5 km/h (2 Bft) N-NO 14 3 min 629 W/m 19,2 C 24,1 C 11,3 km/h (2 Bft)
01.06.2016 13:06 24,5 C 73 % 1012,7 hPa 0,0 l/m 8,4 km/h (2 Bft) N 5 3 min 468 W/m 19,3 C 24,0 C 19,3 km/h (3 Bft)
01.06.2016 13:09 24,3 C 71 % 1012,8 hPa 0,0 l/m 7,9 km/h (2 Bft) NW 323 3 min 485 W/m 18,7 C 23,9 C 14,5 km/h (3 Bft)
01.06.2016 13:12 24,8 C 73 % 1012,8 hPa 0,0 l/m 5,5 km/h (2 Bft) N-NO 26 3 min 547 W/m 19,6 C 24,8 C 14,5 km/h (3 Bft)
01.06.2016 13:15 25,4 C 72 % 1012,8 hPa 0,0 l/m 4,2 km/h (1 Bft) N-NO 31 3 min 520 W/m 20,0 C 25,4 C 9,7 km/h (2 Bft)
01.06.2016 13:18 25,4 C 71 % 1012,8 hPa 0,0 l/m 4,5 km/h (1 Bft) W-NW 302 3 min 701 W/m 19,7 C 25,4 C 11,3 km/h (2 Bft)
01.06.2016 13:21 26,1 C 68 % 1012,8 hPa 0,0 l/m 3,8 km/h (1 Bft) N-NW 338 3 min 759 W/m 19,7 C 26,1 C 9,7 km/h (2 Bft)
01.06.2016 13:24 25,8 C 68 % 1012,8 hPa 0,0 l/m 6,1 km/h (2 Bft) N 360 3 min 612 W/m 19,4 C 25,8 C 16,1 km/h (3 Bft)
01.06.2016 13:27 25,7 C 68 % 1012,8 hPa 0,0 l/m 6,9 km/h (2 Bft) N 355 3 min 668 W/m 19,3 C 25,6 C 14,5 km/h (3 Bft)
01.06.2016 13:30 25,9 C 69 % 1012,7 hPa 0,0 l/m 6,3 km/h (2 Bft) N-NO 15 3 min 504 W/m 19,8 C 25,9 C 11,3 km/h (2 Bft)
01.06.2016 13:33 26,0 C 68 % 1012,8 hPa 0,0 l/m 5,5 km/h (2 Bft) N 360 0 min 432 W/m 19,6 C 26,0 C 11,3 km/h (2 Bft)
01.06.2016 13:36 26,2 C 69 % 1012,8 hPa 0,0 l/m 5,8 km/h (2 Bft) N-NW 345 3 min 838 W/m 20,0 C 26,2 C 11,3 km/h (2 Bft)
01.06.2016 13:39 26,3 C 67 % 1012,8 hPa 0,0 l/m 7,4 km/h (2 Bft) N-NO 15 3 min 846 W/m 19,7 C 26,1 C 14,5 km/h (3 Bft)
01.06.2016 13:42 26,7 C 67 % 1012,7 hPa 0,0 l/m 4,1 km/h (1 Bft) NW 314 3 min 846 W/m 20,0 C 26,7 C 8,0 km/h (2 Bft)
01.06.2016 13:45 27,2 C 66 % 1012,7 hPa 0,0 l/m 5,4 km/h (2 Bft) N-NW 338 3 min 817 W/m 20,3 C 27,2 C 16,1 km/h (3 Bft)
01.06.2016 13:48 26,9 C 66 % 1012,7 hPa 0,0 l/m 7,4 km/h (2 Bft) NO 44 3 min 902 W/m 20,0 C 26,7 C 14,5 km/h (3 Bft)
01.06.2016 13:51 27,3 C 65 % 1012,7 hPa 0,0 l/m 5,9 km/h (2 Bft) O-NO 74 3 min 838 W/m 20,1 C 27,3 C 16,1 km/h (3 Bft)
01.06.2016 13:54 27,5 C 65 % 1012,6 hPa 0,0 l/m 7,3 km/h (2 Bft) N 360 3 min 791 W/m 20,3 C 27,3 C 14,5 km/h (3 Bft)
01.06.2016 13:57 28,0 C 62 % 1012,6 hPa 0,0 l/m 6,2 km/h (2 Bft) O 82 3 min 775 W/m 20,0 C 28,0 C 11,3 km/h (2 Bft)
01.06.2016 14:00 28,6 C 62 % 1012,6 hPa 0,0 l/m 6,5 km/h (2 Bft) N 360 3 min 779 W/m 20,6 C 28,6 C 16,1 km/h (3 Bft)
01.06.2016 14:03 28,7 C 60 % 1012,6 hPa 0,0 l/m 5,4 km/h (2 Bft) W-SW 242 3 min 777 W/m 20,1 C 28,7 C 9,7 km/h (2 Bft)
01.06.2016 14:06 28,5 C 60 % 1012,5 hPa 0,0 l/m 7,3 km/h (2 Bft) N-NO 22 3 min 782 W/m 20,0 C 28,4 C 14,5 km/h (3 Bft)
01.06.2016 14:09 28,6 C 60 % 1012,6 hPa 0,0 l/m 6,4 km/h (2 Bft) N 355 3 min 782 W/m 20,1 C 28,6 C 16,1 km/h (3 Bft)
01.06.2016 14:12 28,4 C 59 % 1012,6 hPa 0,0 l/m 7,8 km/h (2 Bft) W-SW 255 3 min 796 W/m 19,6 C 28,2 C 17,7 km/h (3 Bft)
01.06.2016 14:15 28,1 C 57 % 1012,6 hPa 0,0 l/m 8,8 km/h (2 Bft) W-NW 289 3 min 598 W/m 18,8 C 27,7 C 16,1 km/h (3 Bft)
01.06.2016 14:18 27,6 C 60 % 1012,5 hPa 0,0 l/m 8,6 km/h (2 Bft) N-NW 333 3 min 455 W/m 19,1 C 27,2 C 20,9 km/h (4 Bft)
01.06.2016 14:21 27,4 C 60 % 1012,5 hPa 0,0 l/m 8,7 km/h (2 Bft) N-NW 339 3 min 520 W/m 18,9 C 27,0 C 17,7 km/h (3 Bft)
01.06.2016 14:24 27,4 C 60 % 1012,5 hPa 0,0 l/m 8,7 km/h (2 Bft) NW 317 3 min 786 W/m 18,9 C 27,0 C 20,9 km/h (4 Bft)
01.06.2016 14:27 27,8 C 59 % 1012,4 hPa 0,0 l/m 5,9 km/h (2 Bft) W-NW 294 3 min 670 W/m 19,0 C 27,8 C 17,7 km/h (3 Bft)
01.06.2016 14:30 27,9 C 59 % 1012,4 hPa 0,0 l/m 8,2 km/h (2 Bft) N-NO 24 3 min 807 W/m 19,1 C 27,6 C 16,1 km/h (3 Bft)
01.06.2016 14:33 28,3 C 58 % 1012,3 hPa 0,0 l/m 7,9 km/h (2 Bft) NW 322 3 min 849 W/m 19,2 C 28,1 C 19,3 km/h (3 Bft)
01.06.2016 14:36 28,6 C 57 % 1012,4 hPa 0,0 l/m 5,2 km/h (1 Bft) NO 48 0 min 371 W/m 19,2 C 28,6 C 11,3 km/h (2 Bft)
01.06.2016 14:39 28,3 C 58 % 1012,4 hPa 0,0 l/m 4,5 km/h (1 Bft) N-NW 337 0 min 343 W/m 19,2 C 28,3 C 9,7 km/h (2 Bft)
01.06.2016 14:42 28,4 C 58 % 1012,4 hPa 0,0 l/m 6,0 km/h (2 Bft) N-NW 334 3 min 837 W/m 19,3 C 28,4 C 12,9 km/h (3 Bft)
01.06.2016 14:45 28,6 C 58 % 1012,3 hPa 0,0 l/m 5,8 km/h (2 Bft) N 355 3 min 782 W/m 19,5 C 28,6 C 16,1 km/h (3 Bft)
01.06.2016 14:48 28,8 C 58 % 1012,3 hPa 0,0 l/m 5,5 km/h (2 Bft) N-NW 335 3 min 798 W/m 19,7 C 28,8 C 17,7 km/h (3 Bft)
01.06.2016 14:51 28,9 C 56 % 1012,3 hPa 0,0 l/m 8,4 km/h (2 Bft) N 355 3 min 773 W/m 19,2 C 28,6 C 17,7 km/h (3 Bft)
01.06.2016 14:54 28,9 C 57 % 1012,2 hPa 0,0 l/m 3,9 km/h (1 Bft) NW 313 3 min 761 W/m 19,5 C 28,9 C 9,7 km/h (2 Bft)
01.06.2016 14:57 28,8 C 56 % 1012,3 hPa 0,0 l/m 7,6 km/h (2 Bft) NW 323 3 min 756 W/m 19,1 C 28,6 C 12,9 km/h (3 Bft)
01.06.2016 15:00 28,9 C 56 % 1012,2 hPa 0,0 l/m 8,2 km/h (2 Bft) N-NW 333 3 min 751 W/m 19,2 C 28,7 C 19,3 km/h (3 Bft)
01.06.2016 15:03 28,9 C 55 % 1012,2 hPa 0,0 l/m 7,1 km/h (2 Bft) N 360 3 min 745 W/m 18,9 C 28,8 C 14,5 km/h (3 Bft)
01.06.2016 15:06 29,2 C 54 % 1012,1 hPa 0,0 l/m 5,3 km/h (1 Bft) W-SW 244 3 min 744 W/m 18,9 C 29,2 C 16,1 km/h (3 Bft)
01.06.2016 15:09 29,6 C 53 % 1012,0 hPa 0,0 l/m 5,9 km/h (2 Bft) N-NW 329 3 min 740 W/m 19,0 C 29,6 C 16,1 km/h (3 Bft)
01.06.2016 15:12 29,4 C 54 % 1012,0 hPa 0,0 l/m 4,6 km/h (1 Bft) N-NO 16 3 min 737 W/m 19,1 C 29,4 C 12,9 km/h (3 Bft)
01.06.2016 15:15 29,7 C 54 % 1011,9 hPa 0,0 l/m 6,7 km/h (2 Bft) NO 55 3 min 737 W/m 19,4 C 29,7 C 22,5 km/h (4 Bft)
01.06.2016 15:18 28,9 C 55 % 1011,9 hPa 0,0 l/m 9,1 km/h (2 Bft) NO 39 3 min 733 W/m 18,9 C 28,6 C 19,3 km/h (3 Bft)
01.06.2016 15:21 28,6 C 55 % 1011,9 hPa 0,0 l/m 8,2 km/h (2 Bft) O-NO 65 3 min 728 W/m 18,7 C 28,4 C 17,7 km/h (3 Bft)
01.06.2016 15:24 28,7 C 57 % 1011,9 hPa 0,0 l/m 6,3 km/h (2 Bft) N-NO 31 3 min 722 W/m 19,3 C 28,7 C 16,1 km/h (3 Bft)
01.06.2016 15:27 28,8 C 55 % 1011,9 hPa 0,0 l/m 9,7 km/h (2 Bft) NO 47 3 min 722 W/m 18,8 C 28,4 C 25,7 km/h (4 Bft)
01.06.2016 15:30 28,8 C 54 % 1011,9 hPa 0,0 l/m 7,7 km/h (2 Bft) N 349 3 min 722 W/m 18,5 C 28,6 C 14,5 km/h (3 Bft)
01.06.2016 15:33 29,1 C 55 % 1011,9 hPa 0,0 l/m 6,8 km/h (2 Bft) W-NW 302 3 min 715 W/m 19,1 C 29,1 C 17,7 km/h (3 Bft)
01.06.2016 15:36 28,8 C 54 % 1011,9 hPa 0,0 l/m 10,5 km/h (2 Bft) W-SW 254 3 min 708 W/m 18,5 C 28,3 C 30,6 km/h (5 Bft)
01.06.2016 15:39 29,1 C 55 % 1011,8 hPa 0,0 l/m 7,5 km/h (2 Bft) O-NO 57 3 min 701 W/m 19,1 C 29,0 C 17,7 km/h (3 Bft)
01.06.2016 15:42 29,3 C 54 % 1011,8 hPa 0,0 l/m 6,4 km/h (2 Bft) N-NO 13 3 min 700 W/m 19,0 C 29,3 C 14,5 km/h (3 Bft)
01.06.2016 15:45 29,4 C 53 % 1011,8 hPa 0,0 l/m 9,1 km/h (2 Bft) NW 317 3 min 694 W/m 18,8 C 29,1 C 19,3 km/h (3 Bft)
01.06.2016 15:48 29,1 C 54 % 1011,8 hPa 0,0 l/m 6,4 km/h (2 Bft) O 83 3 min 687 W/m 18,8 C 29,1 C 12,9 km/h (3 Bft)
01.06.2016 15:51 29,0 C 55 % 1011,7 hPa 0,0 l/m 6,4 km/h (2 Bft) N-NO 19 3 min 691 W/m 19,0 C 29,0 C 19,3 km/h (3 Bft)
01.06.2016 15:54 28,6 C 55 % 1011,7 hPa 0,0 l/m 9,4 km/h (2 Bft) S-SW 201 3 min 687 W/m 18,7 C 28,2 C 20,9 km/h (4 Bft)
01.06.2016 15:57 29,2 C 55 % 1011,7 hPa 0,0 l/m 7,0 km/h (2 Bft) N 350 3 min 687 W/m 19,2 C 29,1 C 17,7 km/h (3 Bft)
01.06.2016 16:00 29,1 C 53 % 1011,6 hPa 0,0 l/m 7,6 km/h (2 Bft) N-NO 12 3 min 684 W/m 18,5 C 29,0 C 16,1 km/h (3 Bft)
01.06.2016 16:03 29,0 C 54 % 1011,6 hPa 0,0 l/m 8,0 km/h (2 Bft) N-NO 30 3 min 679 W/m 18,7 C 28,8 C 17,7 km/h (3 Bft)
01.06.2016 16:06 29,4 C 54 % 1011,7 hPa 0,0 l/m 6,2 km/h (2 Bft) W-NW 294 3 min 675 W/m 19,1 C 29,4 C 14,5 km/h (3 Bft)
01.06.2016 16:09 28,7 C 56 % 1011,6 hPa 0,0 l/m 5,5 km/h (2 Bft) NW 309 3 min 671 W/m 19,0 C 28,7 C 14,5 km/h (3 Bft)
01.06.2016 16:12 28,8 C 54 % 1011,6 hPa 0,0 l/m 6,7 km/h (2 Bft) N-NO 22 3 min 664 W/m 18,5 C 28,8 C 14,5 km/h (3 Bft)
01.06.2016 16:15 28,8 C 55 % 1011,6 hPa 0,0 l/m 7,5 km/h (2 Bft) N 11 3 min 652 W/m 18,8 C 28,7 C 17,7 km/h (3 Bft)
01.06.2016 16:18 29,1 C 53 % 1011,5 hPa 0,0 l/m 6,9 km/h (2 Bft) N-NO 24 3 min 654 W/m 18,5 C 29,0 C 17,7 km/h (3 Bft)
01.06.2016 16:21 28,7 C 54 % 1011,5 hPa 0,0 l/m 8,3 km/h (2 Bft) W 264 3 min 652 W/m 18,5 C 28,4 C 19,3 km/h (3 Bft)
01.06.2016 16:24 28,7 C 54 % 1011,5 hPa 0,0 l/m 6,8 km/h (2 Bft) N 10 3 min 642 W/m 18,5 C 28,6 C 17,7 km/h (3 Bft)
01.06.2016 16:27 29,2 C 54 % 1011,6 hPa 0,0 l/m 5,8 km/h (2 Bft) NW 315 3 min 635 W/m 18,9 C 29,2 C 14,5 km/h (3 Bft)
01.06.2016 16:30 29,3 C 54 % 1011,6 hPa 0,0 l/m 5,0 km/h (1 Bft) NW 309 3 min 631 W/m 19,0 C 29,3 C 11,3 km/h (2 Bft)
01.06.2016 16:33 29,3 C 54 % 1011,6 hPa 0,0 l/m 5,2 km/h (1 Bft) NW 312 3 min 617 W/m 19,0 C 29,3 C 14,5 km/h (3 Bft)
01.06.2016 16:36 29,1 C 55 % 1011,5 hPa 0,0 l/m 5,9 km/h (2 Bft) N-NO 19 3 min 615 W/m 19,1 C 29,1 C 14,5 km/h (3 Bft)
01.06.2016 16:39 29,0 C 54 % 1011,5 hPa 0,0 l/m 7,9 km/h (2 Bft) W 280 3 min 613 W/m 18,7 C 28,8 C 17,7 km/h (3 Bft)
01.06.2016 16:42 28,8 C 55 % 1011,5 hPa 0,0 l/m 5,2 km/h (1 Bft) W-NW 293 3 min 617 W/m 18,8 C 28,8 C 12,9 km/h (3 Bft)
01.06.2016 16:45 28,9 C 55 % 1011,5 hPa 0,0 l/m 9,9 km/h (2 Bft) N-NW 347 3 min 610 W/m 18,9 C 28,5 C 17,7 km/h (3 Bft)
01.06.2016 16:48 29,0 C 54 % 1011,5 hPa 0,0 l/m 7,2 km/h (2 Bft) NO 40 3 min 606 W/m 18,7 C 28,9 C 16,1 km/h (3 Bft)
01.06.2016 16:51 28,8 C 54 % 1011,5 hPa 0,0 l/m 7,6 km/h (2 Bft) N-NO 23 3 min 591 W/m 18,5 C 28,6 C 16,1 km/h (3 Bft)
01.06.2016 16:54 28,6 C 54 % 1011,5 hPa 0,0 l/m 6,4 km/h (2 Bft) N-NO 13 3 min 603 W/m 18,4 C 28,6 C 17,7 km/h (3 Bft)
01.06.2016 16:57 28,3 C 54 % 1011,5 hPa 0,0 l/m 9,1 km/h (2 Bft) N 360 3 min 613 W/m 18,1 C 27,9 C 20,9 km/h (4 Bft)
01.06.2016 17:00 28,4 C 54 % 1011,5 hPa 0,0 l/m 8,6 km/h (2 Bft) NW 305 3 min 631 W/m 18,2 C 28,1 C 19,3 km/h (3 Bft)
01.06.2016 17:03 28,6 C 54 % 1011,4 hPa 0,0 l/m 9,1 km/h (2 Bft) N-NO 33 3 min 652 W/m 18,4 C 28,2 C 25,7 km/h (4 Bft)
01.06.2016 17:06 28,7 C 55 % 1011,4 hPa 0,0 l/m 8,3 km/h (2 Bft) N 5 3 min 671 W/m 18,7 C 28,4 C 20,9 km/h (4 Bft)
01.06.2016 17:09 28,9 C 54 % 1011,4 hPa 0,0 l/m 7,5 km/h (2 Bft) N 10 3 min 663 W/m 18,6 C 28,8 C 20,9 km/h (4 Bft)
01.06.2016 17:12 28,8 C 54 % 1011,4 hPa 0,0 l/m 6,6 km/h (2 Bft) N 11 3 min 617 W/m 18,5 C 28,8 C 14,5 km/h (3 Bft)
01.06.2016 17:15 28,7 C 55 % 1011,4 hPa 0,0 l/m 7,0 km/h (2 Bft) N 350 3 min 624 W/m 18,7 C 28,6 C 16,1 km/h (3 Bft)
01.06.2016 17:18 28,8 C 55 % 1011,4 hPa 0,0 l/m 7,5 km/h (2 Bft) N 355 3 min 594 W/m 18,8 C 28,7 C 17,7 km/h (3 Bft)
01.06.2016 17:21 28,8 C 54 % 1011,3 hPa 0,0 l/m 10,1 km/h (2 Bft) O-NO 64 3 min 585 W/m 18,5 C 28,4 C 22,5 km/h (4 Bft)
01.06.2016 17:25 28,2 C 54 % 1011,4 hPa 0,0 l/m 9,1 km/h (2 Bft) W-NW 296 4 min 594 W/m 18,0 C 27,8 C 20,9 km/h (4 Bft)
01.06.2016 17:26 28,3 C 54 % 1011,3 hPa 0,0 l/m 5,2 km/h (1 Bft) N-NW 338 1 min 592 W/m 18,1 C 28,3 C 8,0 km/h (2 Bft)
01.06.2016 17:27 28,3 C 54 % 1011,2 hPa 0,0 l/m 6,8 km/h (2 Bft) N-NO 21 1 min 591 W/m 18,1 C 28,2 C 12,9 km/h (3 Bft)
01.06.2016 17:30 28,6 C 54 % 1011,3 hPa 0,0 l/m 4,8 km/h (1 Bft) N-NW 327 3 min 548 W/m 18,4 C 28,6 C 6,4 km/h (2 Bft)
01.06.2016 17:33 28,8 C 54 % 1011,4 hPa 0,0 l/m 11,8 km/h (2 Bft) N-NO 21 3 min 427 W/m 18,5 C 28,2 C 24,1 km/h (4 Bft)
01.06.2016 17:36 28,7 C 53 % 1011,4 hPa 0,0 l/m 4,8 km/h (1 Bft) W 263 0 min 297 W/m 18,2 C 28,7 C 12,9 km/h (3 Bft)
01.06.2016 17:39 28,3 C 54 % 1011,4 hPa 0,0 l/m 9,3 km/h (2 Bft) NO 54 0 min 227 W/m 18,1 C 27,9 C 20,9 km/h (4 Bft)
01.06.2016 17:42 27,6 C 55 % 1011,4 hPa 0,0 l/m 8,1 km/h (2 Bft) NW 315 3 min 510 W/m 17,7 C 27,3 C 16,1 km/h (3 Bft)
01.06.2016 17:45 27,4 C 56 % 1011,5 hPa 0,0 l/m 9,3 km/h (2 Bft) N 10 3 min 355 W/m 17,8 C 26,9 C 24,1 km/h (4 Bft)
01.06.2016 17:48 27,4 C 55 % 1011,4 hPa 0,0 l/m 8,0 km/h (2 Bft) N-NO 22 3 min 287 W/m 17,5 C 27,1 C 16,1 km/h (3 Bft)
01.06.2016 17:51 27,4 C 57 % 1011,5 hPa 0,0 l/m 6,7 km/h (2 Bft) W-NW 290 3 min 568 W/m 18,1 C 27,4 C 16,1 km/h (3 Bft)
01.06.2016 17:54 27,5 C 57 % 1011,5 hPa 0,0 l/m 7,6 km/h (2 Bft) NO 38 0 min 207 W/m 18,2 C 27,3 C 24,1 km/h (4 Bft)
01.06.2016 17:57 27,2 C 57 % 1011,5 hPa 0,0 l/m 7,0 km/h (2 Bft) N-NO 33 0 min 186 W/m 17,9 C 27,1 C 17,7 km/h (3 Bft)
01.06.2016 18:00 27,1 C 58 % 1011,6 hPa 0,0 l/m 6,7 km/h (2 Bft) N-NW 344 0 min 156 W/m 18,1 C 27,0 C 14,5 km/h (3 Bft)
01.06.2016 18:03 26,7 C 59 % 1011,5 hPa 0,0 l/m 8,2 km/h (2 Bft) N-NW 341 0 min 160 W/m 18,0 C 26,3 C 17,7 km/h (3 Bft)
01.06.2016 18:06 26,4 C 59 % 1011,6 hPa 0,0 l/m 9,0 km/h (2 Bft) W 281 0 min 121 W/m 17,7 C 25,9 C 20,9 km/h (4 Bft)
01.06.2016 18:09 26,3 C 60 % 1011,5 hPa 0,0 l/m 6,3 km/h (2 Bft) N-NW 331 0 min 116 W/m 17,9 C 26,3 C 14,5 km/h (3 Bft)
01.06.2016 18:12 25,8 C 62 % 1011,6 hPa 0,0 l/m 5,7 km/h (2 Bft) N-NO 29 0 min 137 W/m 18,0 C 25,8 C 16,1 km/h (3 Bft)
01.06.2016 18:15 25,7 C 63 % 1011,6 hPa 0,0 l/m 5,7 km/h (2 Bft) NW 311 0 min 113 W/m 18,1 C 25,7 C 12,9 km/h (3 Bft)
01.06.2016 18:18 25,7 C 64 % 1011,6 hPa 0,0 l/m 4,4 km/h (1 Bft) N-NW 331 0 min 111 W/m 18,4 C 25,7 C 11,3 km/h (2 Bft)
01.06.2016 18:21 25,2 C 65 % 1011,6 hPa 0,0 l/m 5,8 km/h (2 Bft) N 360 0 min 135 W/m 18,1 C 25,2 C 14,5 km/h (3 Bft)
01.06.2016 18:24 25,1 C 66 % 1011,5 hPa 0,0 l/m 5,9 km/h (2 Bft) W-NW 302 0 min 160 W/m 18,3 C 25,1 C 14,5 km/h (3 Bft)
01.06.2016 18:27 25,2 C 65 % 1011,6 hPa 0,0 l/m 6,0 km/h (2 Bft) N 360 0 min 169 W/m 18,1 C 25,2 C 16,1 km/h (3 Bft)
01.06.2016 18:30 25,4 C 64 % 1011,5 hPa 0,0 l/m 6,9 km/h (2 Bft) NW 319 0 min 174 W/m 18,1 C 25,3 C 14,5 km/h (3 Bft)
01.06.2016 18:33 25,3 C 64 % 1011,5 hPa 0,0 l/m 6,4 km/h (2 Bft) O-NO 67 0 min 156 W/m 18,0 C 25,3 C 12,9 km/h (3 Bft)
01.06.2016 18:36 25,2 C 66 % 1011,5 hPa 0,0 l/m 6,8 km/h (2 Bft) N-NO 13 3 min 246 W/m 18,4 C 25,1 C 16,1 km/h (3 Bft)
01.06.2016 18:39 24,9 C 65 % 1011,5 hPa 0,0 l/m 6,7 km/h (2 Bft) N-NW 340 0 min 100 W/m 17,9 C 24,8 C 12,9 km/h (3 Bft)
01.06.2016 18:42 24,8 C 66 % 1011,4 hPa 0,0 l/m 6,6 km/h (2 Bft) NO 40 0 min 83 W/m 18,0 C 24,8 C 16,1 km/h (3 Bft)
01.06.2016 18:45 24,8 C 67 % 1011,3 hPa 0,0 l/m 7,1 km/h (2 Bft) O-NO 74 0 min 79 W/m 18,2 C 24,6 C 17,7 km/h (3 Bft)
01.06.2016 18:48 24,6 C 67 % 1011,4 hPa 0,0 l/m 8,4 km/h (2 Bft) NW 325 0 min 83 W/m 18,1 C 24,1 C 17,7 km/h (3 Bft)
01.06.2016 18:51 24,6 C 67 % 1011,3 hPa 0,0 l/m 6,5 km/h (2 Bft) O-NO 68 0 min 88 W/m 18,1 C 24,6 C 16,1 km/h (3 Bft)
01.06.2016 18:54 24,5 C 67 % 1011,3 hPa 0,0 l/m 6,7 km/h (2 Bft) N-NO 15 0 min 148 W/m 18,0 C 24,4 C 16,1 km/h (3 Bft)
01.06.2016 18:57 24,5 C 68 % 1011,4 hPa 0,0 l/m 7,2 km/h (2 Bft) N 360 0 min 179 W/m 18,2 C 24,3 C 19,3 km/h (3 Bft)
01.06.2016 19:00 24,6 C 68 % 1011,4 hPa 0,0 l/m 6,7 km/h (2 Bft) N-NW 346 0 min 128 W/m 18,3 C 24,5 C 19,3 km/h (3 Bft)
01.06.2016 19:03 24,6 C 68 % 1011,4 hPa 0,0 l/m 5,4 km/h (2 Bft) NW 306 0 min 107 W/m 18,3 C 24,6 C 11,3 km/h (2 Bft)
01.06.2016 19:06 24,4 C 69 % 1011,4 hPa 0,0 l/m 9,0 km/h (2 Bft) NW 325 0 min 91 W/m 18,3 C 23,7 C 19,3 km/h (3 Bft)
01.06.2016 19:09 24,4 C 69 % 1011,4 hPa 0,0 l/m 6,9 km/h (2 Bft) NW 314 0 min 69 W/m 18,3 C 24,3 C 16,1 km/h (3 Bft)
01.06.2016 19:12 24,2 C 69 % 1011,4 hPa 0,0 l/m 6,5 km/h (2 Bft) W-NW 292 0 min 65 W/m 18,1 C 24,2 C 14,5 km/h (3 Bft)
01.06.2016 19:15 24,1 C 70 % 1011,4 hPa 0,0 l/m 7,1 km/h (2 Bft) N-NO 25 0 min 158 W/m 18,3 C 23,9 C 14,5 km/h (3 Bft)
01.06.2016 19:18 23,9 C 70 % 1011,4 hPa 0,0 l/m 7,0 km/h (2 Bft) N 355 3 min 229 W/m 18,1 C 23,7 C 19,3 km/h (3 Bft)
01.06.2016 19:21 24,0 C 70 % 1011,4 hPa 0,0 l/m 6,0 km/h (2 Bft) O 79 0 min 121 W/m 18,2 C 24,0 C 14,5 km/h (3 Bft)
01.06.2016 19:24 24,0 C 70 % 1011,3 hPa 0,0 l/m 7,2 km/h (2 Bft) N-NW 330 3 min 221 W/m 18,2 C 23,8 C 17,7 km/h (3 Bft)
01.06.2016 19:27 24,1 C 71 % 1011,4 hPa 0,0 l/m 4,4 km/h (1 Bft) N 5 3 min 211 W/m 18,5 C 24,1 C 9,7 km/h (2 Bft)
01.06.2016 19:30 24,2 C 70 % 1011,3 hPa 0,0 l/m 8,0 km/h (2 Bft) NW 305 3 min 188 W/m 18,4 C 23,8 C 17,7 km/h (3 Bft)
01.06.2016 19:33 24,3 C 70 % 1011,3 hPa 0,0 l/m 7,1 km/h (2 Bft) N-NW 327 3 min 197 W/m 18,5 C 24,1 C 19,3 km/h (3 Bft)
01.06.2016 19:36 24,2 C 70 % 1011,3 hPa 0,0 l/m 6,7 km/h (2 Bft) NW 311 3 min 192 W/m 18,4 C 24,1 C 12,9 km/h (3 Bft)
01.06.2016 19:39 24,1 C 71 % 1011,3 hPa 0,0 l/m 4,6 km/h (1 Bft) N-NO 28 3 min 185 W/m 18,5 C 24,1 C 8,0 km/h (2 Bft)
01.06.2016 19:42 24,1 C 70 % 1011,3 hPa 0,0 l/m 6,0 km/h (2 Bft) N 360 3 min 179 W/m 18,3 C 24,1 C 19,3 km/h (3 Bft)
01.06.2016 19:45 23,9 C 71 % 1011,3 hPa 0,0 l/m 7,2 km/h (2 Bft) N-NW 338 3 min 171 W/m 18,3 C 23,7 C 19,3 km/h (3 Bft)
01.06.2016 19:48 23,8 C 71 % 1011,3 hPa 0,0 l/m 4,7 km/h (1 Bft) NW 311 3 min 165 W/m 18,2 C 23,8 C 12,9 km/h (3 Bft)
01.06.2016 19:51 23,8 C 71 % 1011,3 hPa 0,0 l/m 5,3 km/h (1 Bft) NW 324 3 min 153 W/m 18,2 C 23,8 C 17,7 km/h (3 Bft)
01.06.2016 19:54 23,5 C 71 % 1011,3 hPa 0,0 l/m 5,3 km/h (1 Bft) W-NW 285 3 min 146 W/m 17,9 C 23,5 C 14,5 km/h (3 Bft)
01.06.2016 19:57 23,6 C 71 % 1011,4 hPa 0,0 l/m 6,0 km/h (2 Bft) W 259 3 min 139 W/m 18,0 C 23,6 C 14,5 km/h (3 Bft)
01.06.2016 20:00 23,7 C 71 % 1011,4 hPa 0,0 l/m 5,1 km/h (1 Bft) NW 311 3 min 134 W/m 18,1 C 23,7 C 9,7 km/h (2 Bft)
01.06.2016 20:03 23,6 C 70 % 1011,4 hPa 0,0 l/m 5,2 km/h (1 Bft) NW 322 3 min 127 W/m 17,8 C 23,6 C 14,5 km/h (3 Bft)
01.06.2016 20:06 23,6 C 71 % 1011,4 hPa 0,0 l/m 3,9 km/h (1 Bft) NW 316 0 min 121 W/m 18,0 C 23,6 C 8,0 km/h (2 Bft)
01.06.2016 20:09 23,4 C 72 % 1011,4 hPa 0,0 l/m 5,4 km/h (2 Bft) O 84 0 min 113 W/m 18,1 C 23,4 C 16,1 km/h (3 Bft)
01.06.2016 20:12 23,1 C 72 % 1011,4 hPa 0,0 l/m 5,8 km/h (2 Bft) N 360 0 min 97 W/m 17,8 C 23,1 C 14,5 km/h (3 Bft)
01.06.2016 20:15 23,1 C 72 % 1011,3 hPa 0,0 l/m 6,4 km/h (2 Bft) W 281 0 min 67 W/m 17,8 C 23,1 C 12,9 km/h (3 Bft)
01.06.2016 20:18 23,1 C 72 % 1011,4 hPa 0,0 l/m 5,9 km/h (2 Bft) NW 324 0 min 53 W/m 17,8 C 23,1 C 16,1 km/h (3 Bft)
01.06.2016 20:21 23,2 C 72 % 1011,4 hPa 0,0 l/m 5,1 km/h (1 Bft) NO 46 0 min 40 W/m 17,9 C 23,2 C 11,3 km/h (2 Bft)
01.06.2016 20:24 23,1 C 72 % 1011,4 hPa 0,0 l/m 5,6 km/h (2 Bft) N-NO 26 0 min 37 W/m 17,8 C 23,1 C 12,9 km/h (3 Bft)
01.06.2016 20:27 22,9 C 72 % 1011,4 hPa 0,0 l/m 7,3 km/h (2 Bft) N-NO 31 0 min 33 W/m 17,6 C 22,6 C 17,7 km/h (3 Bft)
01.06.2016 20:30 22,9 C 72 % 1011,4 hPa 0,0 l/m 6,0 km/h (2 Bft) W-NW 301 0 min 32 W/m 17,6 C 22,9 C 14,5 km/h (3 Bft)
01.06.2016 20:33 22,8 C 72 % 1011,4 hPa 0,0 l/m 6,4 km/h (2 Bft) N-NW 331 0 min 28 W/m 17,5 C 22,8 C 14,5 km/h (3 Bft)
01.06.2016 20:36 22,8 C 71 % 1011,4 hPa 0,0 l/m 4,7 km/h (1 Bft) NO 55 0 min 26 W/m 17,3 C 22,8 C 14,5 km/h (3 Bft)
01.06.2016 20:39 22,7 C 72 % 1011,4 hPa 0,0 l/m 6,0 km/h (2 Bft) N 9 0 min 25 W/m 17,4 C 22,7 C 16,1 km/h (3 Bft)
01.06.2016 20:42 22,6 C 73 % 1011,4 hPa 0,0 l/m 5,5 km/h (2 Bft) N 360 0 min 23 W/m 17,5 C 22,6 C 12,9 km/h (3 Bft)
01.06.2016 20:45 22,4 C 73 % 1011,4 hPa 0,0 l/m 6,4 km/h (2 Bft) W-NW 291 0 min 23 W/m 17,3 C 22,4 C 17,7 km/h (3 Bft)
01.06.2016 20:48 22,4 C 73 % 1011,4 hPa 0,0 l/m 4,7 km/h (1 Bft) W-NW 298 0 min 21 W/m 17,3 C 22,4 C 11,3 km/h (2 Bft)
01.06.2016 20:51 22,4 C 73 % 1011,4 hPa 0,0 l/m 4,4 km/h (1 Bft) W-NW 302 0 min 21 W/m 17,3 C 22,4 C 9,7 km/h (2 Bft)
01.06.2016 20:54 22,3 C 72 % 1011,4 hPa 0,0 l/m 7,2 km/h (2 Bft) NW 306 0 min 21 W/m 17,0 C 22,0 C 16,1 km/h (3 Bft)
01.06.2016 20:57 22,2 C 73 % 1011,4 hPa 0,0 l/m 5,8 km/h (2 Bft) NO 53 0 min 21 W/m 17,1 C 22,2 C 12,9 km/h (3 Bft)
01.06.2016 21:00 22,1 C 74 % 1011,4 hPa 0,0 l/m 4,6 km/h (1 Bft) O-NO 74 0 min 21 W/m 17,2 C 22,1 C 16,1 km/h (3 Bft)
01.06.2016 21:03 22,0 C 74 % 1011,5 hPa 0,0 l/m 5,7 km/h (2 Bft) N-NO 12 0 min 21 W/m 17,1 C 22,0 C 12,9 km/h (3 Bft)
01.06.2016 21:06 21,9 C 74 % 1011,5 hPa 0,0 l/m 5,2 km/h (1 Bft) W-NW 302 0 min 21 W/m 17,0 C 21,9 C 9,7 km/h (2 Bft)
01.06.2016 21:09 21,9 C 75 % 1011,5 hPa 0,0 l/m 6,4 km/h (2 Bft) N-NO 32 0 min 19 W/m 17,3 C 21,9 C 16,1 km/h (3 Bft)
01.06.2016 21:12 21,9 C 75 % 1011,5 hPa 0,0 l/m 6,5 km/h (2 Bft) N 5 0 min 19 W/m 17,3 C 21,9 C 14,5 km/h (3 Bft)
01.06.2016 21:15 21,9 C 75 % 1011,5 hPa 0,0 l/m 5,2 km/h (1 Bft) N-NW 328 0 min 19 W/m 17,3 C 21,9 C 9,7 km/h (2 Bft)
01.06.2016 21:18 21,9 C 75 % 1011,6 hPa 0,0 l/m 2,8 km/h (1 Bft) W-NW 288 0 min 16 W/m 17,3 C 21,9 C 4,8 km/h (1 Bft)
01.06.2016 21:21 21,9 C 75 % 1011,6 hPa 0,0 l/m 5,1 km/h (1 Bft) NW 326 0 min 14 W/m 17,3 C 21,9 C 12,9 km/h (3 Bft)
01.06.2016 21:24 21,8 C 75 % 1011,7 hPa 0,0 l/m 3,2 km/h (1 Bft) N 360 0 min 12 W/m 17,2 C 21,8 C 12,9 km/h (3 Bft)
01.06.2016 21:27 21,7 C 75 % 1011,8 hPa 0,0 l/m 2,5 km/h (1 Bft) W 269 0 min 11 W/m 17,1 C 21,7 C 4,8 km/h (1 Bft)
01.06.2016 21:30 21,5 C 76 % 1011,8 hPa 0,0 l/m 1,7 km/h (1 Bft) W 275 0 min 9 W/m 17,1 C 21,5 C 3,2 km/h (1 Bft)
01.06.2016 21:33 21,4 C 76 % 1011,8 hPa 0,0 l/m 2,3 km/h (1 Bft) NW 326 0 min 7 W/m 17,0 C 21,4 C 4,8 km/h (1 Bft)
01.06.2016 21:36 21,3 C 77 % 1011,9 hPa 0,0 l/m 2,6 km/h (1 Bft) N 5 0 min 7 W/m 17,1 C 21,3 C 6,4 km/h (2 Bft)
01.06.2016 21:39 21,3 C 77 % 1011,8 hPa 0,0 l/m 3,0 km/h (1 Bft) NO 36 0 min 5 W/m 17,1 C 21,3 C 8,0 km/h (2 Bft)
01.06.2016 21:42 21,2 C 78 % 1011,9 hPa 0,0 l/m 1,9 km/h (1 Bft) N-NW 344 0 min 5 W/m 17,2 C 21,2 C 4,8 km/h (1 Bft)
01.06.2016 21:45 21,1 C 79 % 1011,9 hPa 0,0 l/m 2,9 km/h (1 Bft) NW 307 0 min 0 W/m 17,3 C 21,1 C 6,4 km/h (2 Bft)
01.06.2016 21:48 20,9 C 79 % 1011,9 hPa 0,0 l/m 0,9 km/h (0 Bft) NW 307 0 min 0 W/m 17,1 C 20,9 C 3,2 km/h (1 Bft)
01.06.2016 21:51 20,9 C 79 % 1012,0 hPa 0,0 l/m 1,2 km/h (1 Bft) NO 40 0 min 0 W/m 17,1 C 20,9 C 6,4 km/h (2 Bft)
01.06.2016 21:54 20,9 C 79 % 1012,0 hPa 0,0 l/m 1,9 km/h (1 Bft) W 276 0 min 0 W/m 17,1 C 20,9 C 4,8 km/h (1 Bft)
01.06.2016 21:57 20,9 C 79 % 1012,0 hPa 0,0 l/m 3,2 km/h (1 Bft) N 360 0 min 0 W/m 17,1 C 20,9 C 6,4 km/h (2 Bft)
01.06.2016 22:00 20,8 C 80 % 1012,0 hPa 0,0 l/m 2,4 km/h (1 Bft) SW 221 0 min 0 W/m 17,2 C 20,8 C 4,8 km/h (1 Bft)
01.06.2016 22:03 20,8 C 80 % 1012,1 hPa 0,0 l/m 2,0 km/h (1 Bft) W-NW 303 0 min 0 W/m 17,2 C 20,8 C 4,8 km/h (1 Bft)
01.06.2016 22:06 20,8 C 80 % 1012,1 hPa 0,0 l/m 2,7 km/h (1 Bft) W-NW 300 0 min 0 W/m 17,2 C 20,8 C 6,4 km/h (2 Bft)
01.06.2016 22:09 20,7 C 80 % 1012,1 hPa 0,0 l/m 3,0 km/h (1 Bft) N-NW 329 0 min 0 W/m 17,1 C 20,7 C 6,4 km/h (2 Bft)
01.06.2016 22:12 20,7 C 80 % 1012,1 hPa 0,0 l/m 2,3 km/h (1 Bft) N-NO 13 0 min 0 W/m 17,1 C 20,7 C 6,4 km/h (2 Bft)
01.06.2016 22:15 20,5 C 81 % 1012,1 hPa 0,0 l/m 3,0 km/h (1 Bft) NW 325 0 min 0 W/m 17,1 C 20,5 C 6,4 km/h (2 Bft)
01.06.2016 22:18 20,3 C 81 % 1012,2 hPa 0,0 l/m 2,0 km/h (1 Bft) NO 51 0 min 0 W/m 16,9 C 20,3 C 6,4 km/h (2 Bft)
01.06.2016 22:21 20,1 C 83 % 1012,1 hPa 0,0 l/m 1,7 km/h (1 Bft) N-NO 20 0 min 0 W/m 17,1 C 20,1 C 6,4 km/h (2 Bft)
01.06.2016 22:24 19,9 C 83 % 1012,1 hPa 0,0 l/m 2,1 km/h (1 Bft) SW 221 0 min 0 W/m 16,9 C 19,9 C 4,8 km/h (1 Bft)
01.06.2016 22:27 20,1 C 83 % 1012,1 hPa 0,0 l/m 4,0 km/h (1 Bft) NW 325 0 min 0 W/m 17,1 C 20,1 C 9,7 km/h (2 Bft)
01.06.2016 22:30 20,2 C 83 % 1012,1 hPa 0,0 l/m 2,8 km/h (1 Bft) N-NW 329 0 min 0 W/m 17,2 C 20,2 C 8,0 km/h (2 Bft)
01.06.2016 22:33 20,2 C 83 % 1012,1 hPa 0,0 l/m 2,7 km/h (1 Bft) N-NO 32 0 min 0 W/m 17,2 C 20,2 C 8,0 km/h (2 Bft)
01.06.2016 22:36 20,2 C 83 % 1012,1 hPa 0,0 l/m 2,7 km/h (1 Bft) NO 53 0 min 0 W/m 17,2 C 20,2 C 8,0 km/h (2 Bft)
01.06.2016 22:39 20,2 C 83 % 1012,1 hPa 0,0 l/m 1,9 km/h (1 Bft) O-NO 76 0 min 0 W/m 17,2 C 20,2 C 6,4 km/h (2 Bft)
01.06.2016 22:42 20,3 C 83 % 1012,1 hPa 0,0 l/m 1,3 km/h (1 Bft) NW 311 0 min 0 W/m 17,3 C 20,3 C 4,8 km/h (1 Bft)
01.06.2016 22:45 20,2 C 83 % 1012,1 hPa 0,0 l/m 1,9 km/h (1 Bft) W-NW 300 0 min 0 W/m 17,2 C 20,2 C 6,4 km/h (2 Bft)
01.06.2016 22:48 20,3 C 83 % 1012,1 hPa 0,0 l/m 1,3 km/h (1 Bft) W-NW 291 0 min 0 W/m 17,3 C 20,3 C 3,2 km/h (1 Bft)
01.06.2016 22:51 20,4 C 82 % 1012,1 hPa 0,0 l/m 3,0 km/h (1 Bft) N 5 0 min 0 W/m 17,2 C 20,4 C 8,0 km/h (2 Bft)
01.06.2016 22:54 20,4 C 83 % 1012,1 hPa 0,0 l/m 2,1 km/h (1 Bft) O-NO 65 0 min 0 W/m 17,4 C 20,4 C 6,4 km/h (2 Bft)
01.06.2016 22:57 20,4 C 83 % 1012,1 hPa 0,0 l/m 1,5 km/h (1 Bft) W 274 0 min 0 W/m 17,4 C 20,4 C 6,4 km/h (2 Bft)
01.06.2016 23:00 20,4 C 82 % 1012,1 hPa 0,0 l/m 3,5 km/h (1 Bft) N-NW 339 0 min 0 W/m 17,2 C 20,4 C 8,0 km/h (2 Bft)
01.06.2016 23:03 20,4 C 82 % 1012,1 hPa 0,0 l/m 3,4 km/h (1 Bft) N 5 0 min 0 W/m 17,2 C 20,4 C 8,0 km/h (2 Bft)
01.06.2016 23:06 20,3 C 83 % 1012,1 hPa 0,0 l/m 3,1 km/h (1 Bft) NW 314 0 min 0 W/m 17,3 C 20,3 C 8,0 km/h (2 Bft)
01.06.2016 23:09 20,3 C 84 % 1012,1 hPa 0,0 l/m 2,6 km/h (1 Bft) N-NW 342 0 min 0 W/m 17,5 C 20,3 C 6,4 km/h (2 Bft)
01.06.2016 23:12 20,3 C 84 % 1012,0 hPa 0,0 l/m 3,4 km/h (1 Bft) N 9 0 min 0 W/m 17,5 C 20,3 C 8,0 km/h (2 Bft)
01.06.2016 23:15 20,3 C 84 % 1012,0 hPa 0,0 l/m 3,2 km/h (1 Bft) N-NO 20 0 min 0 W/m 17,5 C 20,3 C 8,0 km/h (2 Bft)
01.06.2016 23:18 20,2 C 84 % 1012,0 hPa 0,0 l/m 3,0 km/h (1 Bft) NO 44 0 min 0 W/m 17,4 C 20,2 C 8,0 km/h (2 Bft)
01.06.2016 23:21 20,1 C 84 % 1011,9 hPa 0,0 l/m 2,8 km/h (1 Bft) N-NO 22 0 min 0 W/m 17,3 C 20,1 C 11,3 km/h (2 Bft)
01.06.2016 23:24 20,0 C 85 % 1011,8 hPa 0,0 l/m 3,8 km/h (1 Bft) W-NW 299 0 min 0 W/m 17,4 C 20,0 C 8,0 km/h (2 Bft)
01.06.2016 23:27 19,9 C 85 % 1011,9 hPa 0,0 l/m 2,0 km/h (1 Bft) N 9 0 min 0 W/m 17,3 C 19,9 C 4,8 km/h (1 Bft)
01.06.2016 23:30 19,8 C 85 % 1011,8 hPa 0,0 l/m 3,4 km/h (1 Bft) N-NO 21 0 min 0 W/m 17,2 C 19,8 C 9,7 km/h (2 Bft)
01.06.2016 23:33 19,8 C 85 % 1011,8 hPa 0,0 l/m 2,8 km/h (1 Bft) S-SW 204 0 min 0 W/m 17,2 C 19,8 C 8,0 km/h (2 Bft)
01.06.2016 23:36 19,7 C 85 % 1011,8 hPa 0,0 l/m 1,8 km/h (1 Bft) NW 313 0 min 0 W/m 17,1 C 19,7 C 4,8 km/h (1 Bft)
01.06.2016 23:39 19,8 C 85 % 1011,8 hPa 0,0 l/m 5,2 km/h (1 Bft) N-NW 342 0 min 0 W/m 17,2 C 19,8 C 16,1 km/h (3 Bft)
01.06.2016 23:42 19,7 C 85 % 1011,7 hPa 0,0 l/m 3,6 km/h (1 Bft) N 5 0 min 0 W/m 17,1 C 19,7 C 9,7 km/h (2 Bft)
01.06.2016 23:45 19,7 C 85 % 1011,6 hPa 0,0 l/m 4,3 km/h (1 Bft) N 351 0 min 0 W/m 17,1 C 19,7 C 11,3 km/h (2 Bft)
01.06.2016 23:48 19,7 C 85 % 1011,6 hPa 0,0 l/m 5,3 km/h (1 Bft) NW 313 0 min 0 W/m 17,1 C 19,7 C 14,5 km/h (3 Bft)
01.06.2016 23:51 19,6 C 85 % 1011,6 hPa 0,0 l/m 4,8 km/h (1 Bft) N 5 0 min 0 W/m 17,0 C 19,6 C 14,5 km/h (3 Bft)
01.06.2016 23:54 19,5 C 85 % 1011,5 hPa 0,0 l/m 5,3 km/h (1 Bft) N-NW 331 0 min 0 W/m 16,9 C 19,5 C 12,9 km/h (3 Bft)
01.06.2016 23:57 19,5 C 85 % 1011,5 hPa 0,0 l/m 3,2 km/h (1 Bft) N-NO 20 0 min 0 W/m 16,9 C 19,5 C 6,4 km/h (2 Bft)
_ Min-Zeit 04:33 15:09 17:27 - 03:27 - - - - 04:18 04:33 02:27
Minimum _ 16,1 C 53 % 1011,2 hPa - 0,1 km/h (0 Bft) - - - - 15,2 C 16,1 C 1,6 km/h (1 Bft)
_ Max-Zeit 15:15 04:27 09:57 00:00 17:33 - - 17:25 13:48 14:00 15:15 15:36
Maximum _ 29,7 C 95 % 1013,7 hPa 0,0 l/m 11,8 km/h
N-NO (2 Bft)
- - 4 min 902 W/m 20,6 C 29,7 C 30,6 km/h
N-NW (5 Bft)
Durchschnitt _ 21,2 C 80 % 1012,4 hPa #0,0 l/m 4,2 km/h (1 Bft) N-NO - #5:36 h 289 W/m 17,3 C 21,2 C 10,3 km/h (2 Bft)
2016 Cux-Wetter.de -Die Nutzung der Wetterdaten nur mit ausdrcklicher Genehmigung